<?xml version="1.0" encoding="UTF-8" standalone="yes"?>
<gpx
 xmlns="http://www.topografix.com/GPX/1/1"
 creator="OziExplorer Version 3956f - http://www.oziexplorer.com"
 version="1.1"
 xmlns:xsi="http://www.w3.org/2001/XMLSchema-instance"
 xsi:schemaLocation="http://www.topografix.com/GPX/1/1 http://www.topografix.com/GPX/1/1/gpx.xsd">
<metadata>
 <time>2020-10-07T15:19:54Z</time>
 <bounds minlat="31.784890" minlon="34.989130" maxlat="31.825160" maxlon="35.020180"/>
</metadata>
<trk>
 <name>Burma-Eshtaol,33km</name>
 <desc>Burma-Eshtaol,33km</desc>
<trkseg>
<trkpt lat="31.8113800" lon="35.0132500">
<ele>275.079987</ele>
<time>2020-10-07T18:19:54.578Z</time>
</trkpt>
<trkpt lat="31.8114300" lon="35.0132600">
<ele>275.550018</ele>
<time>2020-10-07T18:19:54.578Z</time>
</trkpt>
<trkpt lat="31.8114200" lon="35.0133100">
<ele>275.440002</ele>
<time>2020-10-07T18:19:54.578Z</time>
</trkpt>
<trkpt lat="31.8112900" lon="35.0136000">
<ele>275.919983</ele>
<time>2020-10-07T18:19:54.578Z</time>
</trkpt>
<trkpt lat="31.8109800" lon="35.0141300">
<ele>276.510010</ele>
<time>2020-10-07T18:19:54.578Z</time>
</trkpt>
<trkpt lat="31.8105300" lon="35.0149400">
<ele>283.160004</ele>
<time>2020-10-07T18:19:54.578Z</time>
</trkpt>
<trkpt lat="31.8104700" lon="35.0151900">
<ele>285.110016</ele>
<time>2020-10-07T18:19:54.578Z</time>
</trkpt>
<trkpt lat="31.8103500" lon="35.0154900">
<ele>284.700012</ele>
<time>2020-10-07T18:19:54.578Z</time>
</trkpt>
<trkpt lat="31.8102800" lon="35.0157800">
<ele>283.200012</ele>
<time>2020-10-07T18:19:54.578Z</time>
</trkpt>
<trkpt lat="31.8101500" lon="35.0161200">
<ele>284.570007</ele>
<time>2020-10-07T18:19:54.578Z</time>
</trkpt>
<trkpt lat="31.8100100" lon="35.0165600">
<ele>284.130005</ele>
<time>2020-10-07T18:19:54.578Z</time>
</trkpt>
<trkpt lat="31.8098200" lon="35.0170700">
<ele>286.190002</ele>
<time>2020-10-07T18:19:54.578Z</time>
</trkpt>
<trkpt lat="31.8096700" lon="35.0175400">
<ele>287.519989</ele>
<time>2020-10-07T18:19:54.578Z</time>
</trkpt>
<trkpt lat="31.8096400" lon="35.0177100">
<ele>288.350006</ele>
<time>2020-10-07T18:19:54.578Z</time>
</trkpt>
<trkpt lat="31.8095600" lon="35.0180900">
<ele>290.319977</ele>
<time>2020-10-07T18:19:54.578Z</time>
</trkpt>
<trkpt lat="31.8094800" lon="35.0182500">
<ele>292.010010</ele>
<time>2020-10-07T18:19:54.578Z</time>
</trkpt>
<trkpt lat="31.8094800" lon="35.0182500">
<ele>292.010010</ele>
<time>2020-10-07T18:19:54.578Z</time>
</trkpt>
<trkpt lat="31.8094800" lon="35.0182500">
<ele>292.010010</ele>
<time>2020-10-07T18:19:54.578Z</time>
</trkpt>
<trkpt lat="31.8099500" lon="35.0183800">
<ele>291.489990</ele>
<time>2020-10-07T18:19:54.578Z</time>
</trkpt>
<trkpt lat="31.8100000" lon="35.0184000">
<ele>291.479980</ele>
<time>2020-10-07T18:19:54.578Z</time>
</trkpt>
<trkpt lat="31.8100400" lon="35.0184200">
<ele>291.619995</ele>
<time>2020-10-07T18:19:54.578Z</time>
</trkpt>
<trkpt lat="31.8100800" lon="35.0184500">
<ele>291.839996</ele>
<time>2020-10-07T18:19:54.578Z</time>
</trkpt>
<trkpt lat="31.8101200" lon="35.0184900">
<ele>292.130005</ele>
<time>2020-10-07T18:19:54.578Z</time>
</trkpt>
<trkpt lat="31.8101500" lon="35.0185200">
<ele>292.339996</ele>
<time>2020-10-07T18:19:54.578Z</time>
</trkpt>
<trkpt lat="31.8101900" lon="35.0185700">
<ele>292.699982</ele>
<time>2020-10-07T18:19:54.578Z</time>
</trkpt>
<trkpt lat="31.8102200" lon="35.0186100">
<ele>292.989990</ele>
<time>2020-10-07T18:19:54.578Z</time>
</trkpt>
<trkpt lat="31.8102400" lon="35.0186700">
<ele>293.369995</ele>
<time>2020-10-07T18:19:54.578Z</time>
</trkpt>
<trkpt lat="31.8102700" lon="35.0187100">
<ele>293.690002</ele>
<time>2020-10-07T18:19:54.578Z</time>
</trkpt>
<trkpt lat="31.8102900" lon="35.0187700">
<ele>294.160004</ele>
<time>2020-10-07T18:19:54.578Z</time>
</trkpt>
<trkpt lat="31.8104100" lon="35.0191000">
<ele>297.319977</ele>
<time>2020-10-07T18:19:54.578Z</time>
</trkpt>
<trkpt lat="31.8104300" lon="35.0191500">
<ele>297.729980</ele>
<time>2020-10-07T18:19:54.578Z</time>
</trkpt>
<trkpt lat="31.8104500" lon="35.0191900">
<ele>298.329987</ele>
<time>2020-10-07T18:19:54.578Z</time>
</trkpt>
<trkpt lat="31.8104700" lon="35.0192300">
<ele>299.119995</ele>
<time>2020-10-07T18:19:54.578Z</time>
</trkpt>
<trkpt lat="31.8104800" lon="35.0192700">
<ele>299.980011</ele>
<time>2020-10-07T18:19:54.578Z</time>
</trkpt>
<trkpt lat="31.8105000" lon="35.0193100">
<ele>300.700012</ele>
<time>2020-10-07T18:19:54.578Z</time>
</trkpt>
<trkpt lat="31.8105300" lon="35.0193400">
<ele>301.040009</ele>
<time>2020-10-07T18:19:54.578Z</time>
</trkpt>
<trkpt lat="31.8105500" lon="35.0193700">
<ele>301.459991</ele>
<time>2020-10-07T18:19:54.578Z</time>
</trkpt>
<trkpt lat="31.8105900" lon="35.0194100">
<ele>302.040009</ele>
<time>2020-10-07T18:19:54.578Z</time>
</trkpt>
<trkpt lat="31.8106200" lon="35.0194400">
<ele>302.450012</ele>
<time>2020-10-07T18:19:54.579Z</time>
</trkpt>
<trkpt lat="31.8106700" lon="35.0194600">
<ele>302.470001</ele>
<time>2020-10-07T18:19:54.579Z</time>
</trkpt>
<trkpt lat="31.8118000" lon="35.0201800">
<ele>312.679993</ele>
<time>2020-10-07T18:19:54.579Z</time>
</trkpt>
<trkpt lat="31.8118500" lon="35.0199300">
<ele>317.350006</ele>
<time>2020-10-07T18:19:54.579Z</time>
</trkpt>
<trkpt lat="31.8118500" lon="35.0198700">
<ele>317.709991</ele>
<time>2020-10-07T18:19:54.579Z</time>
</trkpt>
<trkpt lat="31.8119100" lon="35.0195800">
<ele>319.719971</ele>
<time>2020-10-07T18:19:54.579Z</time>
</trkpt>
<trkpt lat="31.8121200" lon="35.0188400">
<ele>320.730011</ele>
<time>2020-10-07T18:19:54.579Z</time>
</trkpt>
<trkpt lat="31.8121200" lon="35.0188400">
<ele>320.730011</ele>
<time>2020-10-07T18:19:54.579Z</time>
</trkpt>
<trkpt lat="31.8121200" lon="35.0188400">
<ele>320.730011</ele>
<time>2020-10-07T18:19:54.579Z</time>
</trkpt>
<trkpt lat="31.8121400" lon="35.0187800">
<ele>321.109985</ele>
<time>2020-10-07T18:19:54.579Z</time>
</trkpt>
<trkpt lat="31.8121800" lon="35.0187100">
<ele>321.989990</ele>
<time>2020-10-07T18:19:54.579Z</time>
</trkpt>
<trkpt lat="31.8122500" lon="35.0186900">
<ele>323.160004</ele>
<time>2020-10-07T18:19:54.579Z</time>
</trkpt>
<trkpt lat="31.8123400" lon="35.0186100">
<ele>323.420013</ele>
<time>2020-10-07T18:19:54.579Z</time>
</trkpt>
<trkpt lat="31.8123800" lon="35.0184100">
<ele>323.449982</ele>
<time>2020-10-07T18:19:54.579Z</time>
</trkpt>
<trkpt lat="31.8124000" lon="35.0181600">
<ele>323.669983</ele>
<time>2020-10-07T18:19:54.579Z</time>
</trkpt>
<trkpt lat="31.8123500" lon="35.0176500">
<ele>322.589996</ele>
<time>2020-10-07T18:19:54.579Z</time>
</trkpt>
<trkpt lat="31.8123700" lon="35.0174400">
<ele>322.209991</ele>
<time>2020-10-07T18:19:54.579Z</time>
</trkpt>
<trkpt lat="31.8127200" lon="35.0166500">
<ele>328.809998</ele>
<time>2020-10-07T18:19:54.579Z</time>
</trkpt>
<trkpt lat="31.8128500" lon="35.0163000">
<ele>329.359985</ele>
<time>2020-10-07T18:19:54.579Z</time>
</trkpt>
<trkpt lat="31.8129900" lon="35.0160600">
<ele>330.079987</ele>
<time>2020-10-07T18:19:54.579Z</time>
</trkpt>
<trkpt lat="31.8134500" lon="35.0154700">
<ele>328.380005</ele>
<time>2020-10-07T18:19:54.579Z</time>
</trkpt>
<trkpt lat="31.8136000" lon="35.0151300">
<ele>325.039978</ele>
<time>2020-10-07T18:19:54.579Z</time>
</trkpt>
<trkpt lat="31.8138700" lon="35.0147900">
<ele>326.500000</ele>
<time>2020-10-07T18:19:54.579Z</time>
</trkpt>
<trkpt lat="31.8139700" lon="35.0146200">
<ele>329.170013</ele>
<time>2020-10-07T18:19:54.579Z</time>
</trkpt>
<trkpt lat="31.8140400" lon="35.0144200">
<ele>330.299988</ele>
<time>2020-10-07T18:19:54.579Z</time>
</trkpt>
<trkpt lat="31.8140600" lon="35.0141700">
<ele>327.819977</ele>
<time>2020-10-07T18:19:54.579Z</time>
</trkpt>
<trkpt lat="31.8140200" lon="35.0139600">
<ele>324.040009</ele>
<time>2020-10-07T18:19:54.579Z</time>
</trkpt>
<trkpt lat="31.8139600" lon="35.0137600">
<ele>322.600006</ele>
<time>2020-10-07T18:19:54.579Z</time>
</trkpt>
<trkpt lat="31.8139500" lon="35.0136800">
<ele>322.880005</ele>
<time>2020-10-07T18:19:54.579Z</time>
</trkpt>
<trkpt lat="31.8139800" lon="35.0135600">
<ele>324.089996</ele>
<time>2020-10-07T18:19:54.579Z</time>
</trkpt>
<trkpt lat="31.8140600" lon="35.0134200">
<ele>325.960022</ele>
<time>2020-10-07T18:19:54.579Z</time>
</trkpt>
<trkpt lat="31.8140900" lon="35.0134000">
<ele>326.549988</ele>
<time>2020-10-07T18:19:54.579Z</time>
</trkpt>
<trkpt lat="31.8142300" lon="35.0132100">
<ele>328.380005</ele>
<time>2020-10-07T18:19:54.579Z</time>
</trkpt>
<trkpt lat="31.8144200" lon="35.0130200">
<ele>330.290009</ele>
<time>2020-10-07T18:19:54.579Z</time>
</trkpt>
<trkpt lat="31.8145400" lon="35.0109100">
<ele>343.540009</ele>
<time>2020-10-07T18:19:54.579Z</time>
</trkpt>
<trkpt lat="31.8147300" lon="35.0100600">
<ele>338.940033</ele>
<time>2020-10-07T18:19:54.579Z</time>
</trkpt>
<trkpt lat="31.8148300" lon="35.0087900">
<ele>335.609985</ele>
<time>2020-10-07T18:19:54.579Z</time>
</trkpt>
<trkpt lat="31.8144900" lon="35.0066300">
<ele>309.570007</ele>
<time>2020-10-07T18:19:54.579Z</time>
</trkpt>
<trkpt lat="31.8144000" lon="35.0057500">
<ele>291.450012</ele>
<time>2020-10-07T18:19:54.579Z</time>
</trkpt>
<trkpt lat="31.8145200" lon="35.0054600">
<ele>287.510010</ele>
<time>2020-10-07T18:19:54.579Z</time>
</trkpt>
<trkpt lat="31.8147900" lon="35.0053100">
<ele>291.230011</ele>
<time>2020-10-07T18:19:54.579Z</time>
</trkpt>
<trkpt lat="31.8151300" lon="35.0050400">
<ele>295.910004</ele>
<time>2020-10-07T18:19:54.579Z</time>
</trkpt>
<trkpt lat="31.8151800" lon="35.0048600">
<ele>297.250000</ele>
<time>2020-10-07T18:19:54.579Z</time>
</trkpt>
<trkpt lat="31.8151600" lon="35.0046400">
<ele>298.600006</ele>
<time>2020-10-07T18:19:54.579Z</time>
</trkpt>
<trkpt lat="31.8153200" lon="35.0042600">
<ele>302.149994</ele>
<time>2020-10-07T18:19:54.579Z</time>
</trkpt>
<trkpt lat="31.8158000" lon="35.0033300">
<ele>294.350006</ele>
<time>2020-10-07T18:19:54.579Z</time>
</trkpt>
<trkpt lat="31.8160100" lon="35.0028000">
<ele>290.429993</ele>
<time>2020-10-07T18:19:54.579Z</time>
</trkpt>
<trkpt lat="31.8159600" lon="35.0027500">
<ele>289.910004</ele>
<time>2020-10-07T18:19:54.579Z</time>
</trkpt>
<trkpt lat="31.8159600" lon="35.0027500">
<ele>289.910004</ele>
<time>2020-10-07T18:19:54.579Z</time>
</trkpt>
<trkpt lat="31.8159600" lon="35.0027500">
<ele>289.910004</ele>
<time>2020-10-07T18:19:54.579Z</time>
</trkpt>
<trkpt lat="31.8158600" lon="35.0026400">
<ele>289.190002</ele>
<time>2020-10-07T18:19:54.579Z</time>
</trkpt>
<trkpt lat="31.8153800" lon="35.0027600">
<ele>277.889984</ele>
<time>2020-10-07T18:19:54.579Z</time>
</trkpt>
<trkpt lat="31.8149600" lon="35.0030700">
<ele>277.589996</ele>
<time>2020-10-07T18:19:54.579Z</time>
</trkpt>
<trkpt lat="31.8148200" lon="35.0032300">
<ele>278.529999</ele>
<time>2020-10-07T18:19:54.579Z</time>
</trkpt>
<trkpt lat="31.8147500" lon="35.0036900">
<ele>284.049988</ele>
<time>2020-10-07T18:19:54.579Z</time>
</trkpt>
<trkpt lat="31.8147000" lon="35.0040400">
<ele>285.720001</ele>
<time>2020-10-07T18:19:54.579Z</time>
</trkpt>
<trkpt lat="31.8146500" lon="35.0041800">
<ele>285.760010</ele>
<time>2020-10-07T18:19:54.579Z</time>
</trkpt>
<trkpt lat="31.8145000" lon="35.0042300">
<ele>283.410004</ele>
<time>2020-10-07T18:19:54.579Z</time>
</trkpt>
<trkpt lat="31.8142000" lon="35.0041300">
<ele>281.980011</ele>
<time>2020-10-07T18:19:54.579Z</time>
</trkpt>
<trkpt lat="31.8138300" lon="35.0040500">
<ele>280.100006</ele>
<time>2020-10-07T18:19:54.579Z</time>
</trkpt>
<trkpt lat="31.8133900" lon="35.0041300">
<ele>269.929993</ele>
<time>2020-10-07T18:19:54.579Z</time>
</trkpt>
<trkpt lat="31.8131900" lon="35.0042300">
<ele>265.940002</ele>
<time>2020-10-07T18:19:54.579Z</time>
</trkpt>
<trkpt lat="31.8132100" lon="35.0041700">
<ele>266.220001</ele>
<time>2020-10-07T18:19:54.579Z</time>
</trkpt>
<trkpt lat="31.8132100" lon="35.0041200">
<ele>266.910004</ele>
<time>2020-10-07T18:19:54.579Z</time>
</trkpt>
<trkpt lat="31.8132100" lon="35.0041200">
<ele>266.910004</ele>
<time>2020-10-07T18:19:54.580Z</time>
</trkpt>
<trkpt lat="31.8132100" lon="35.0041200">
<ele>266.910004</ele>
<time>2020-10-07T18:19:54.580Z</time>
</trkpt>
<trkpt lat="31.8132200" lon="35.0040100">
<ele>268.730011</ele>
<time>2020-10-07T18:19:54.580Z</time>
</trkpt>
<trkpt lat="31.8132100" lon="35.0038300">
<ele>270.850006</ele>
<time>2020-10-07T18:19:54.580Z</time>
</trkpt>
<trkpt lat="31.8131800" lon="35.0037200">
<ele>271.239990</ele>
<time>2020-10-07T18:19:54.580Z</time>
</trkpt>
<trkpt lat="31.8130700" lon="35.0034500">
<ele>269.130005</ele>
<time>2020-10-07T18:19:54.580Z</time>
</trkpt>
<trkpt lat="31.8130500" lon="35.0033200">
<ele>267.649994</ele>
<time>2020-10-07T18:19:54.580Z</time>
</trkpt>
<trkpt lat="31.8130500" lon="35.0031100">
<ele>264.660004</ele>
<time>2020-10-07T18:19:54.580Z</time>
</trkpt>
<trkpt lat="31.8130700" lon="35.0028500">
<ele>257.630005</ele>
<time>2020-10-07T18:19:54.580Z</time>
</trkpt>
<trkpt lat="31.8131400" lon="35.0025200">
<ele>250.389999</ele>
<time>2020-10-07T18:19:54.580Z</time>
</trkpt>
<trkpt lat="31.8132100" lon="35.0023300">
<ele>249.169998</ele>
<time>2020-10-07T18:19:54.580Z</time>
</trkpt>
<trkpt lat="31.8133300" lon="35.0021700">
<ele>249.020004</ele>
<time>2020-10-07T18:19:54.580Z</time>
</trkpt>
<trkpt lat="31.8134200" lon="35.0020900">
<ele>248.720001</ele>
<time>2020-10-07T18:19:54.580Z</time>
</trkpt>
<trkpt lat="31.8138600" lon="35.0018100">
<ele>245.909988</ele>
<time>2020-10-07T18:19:54.580Z</time>
</trkpt>
<trkpt lat="31.8140400" lon="35.0016600">
<ele>244.429993</ele>
<time>2020-10-07T18:19:54.580Z</time>
</trkpt>
<trkpt lat="31.8145600" lon="35.0011400">
<ele>244.239990</ele>
<time>2020-10-07T18:19:54.580Z</time>
</trkpt>
<trkpt lat="31.8149600" lon="35.0007700">
<ele>245.880005</ele>
<time>2020-10-07T18:19:54.580Z</time>
</trkpt>
<trkpt lat="31.8151300" lon="35.0006900">
<ele>246.650009</ele>
<time>2020-10-07T18:19:54.580Z</time>
</trkpt>
<trkpt lat="31.8153300" lon="35.0006900">
<ele>247.970001</ele>
<time>2020-10-07T18:19:54.580Z</time>
</trkpt>
<trkpt lat="31.8153800" lon="35.0006900">
<ele>247.970001</ele>
<time>2020-10-07T18:19:54.580Z</time>
</trkpt>
<trkpt lat="31.8156700" lon="35.0007300">
<ele>248.360001</ele>
<time>2020-10-07T18:19:54.580Z</time>
</trkpt>
<trkpt lat="31.8157700" lon="35.0007100">
<ele>248.199997</ele>
<time>2020-10-07T18:19:54.580Z</time>
</trkpt>
<trkpt lat="31.8158400" lon="35.0006800">
<ele>247.899994</ele>
<time>2020-10-07T18:19:54.580Z</time>
</trkpt>
<trkpt lat="31.8159400" lon="35.0006200">
<ele>248.550003</ele>
<time>2020-10-07T18:19:54.580Z</time>
</trkpt>
<trkpt lat="31.8160700" lon="35.0004800">
<ele>248.009995</ele>
<time>2020-10-07T18:19:54.580Z</time>
</trkpt>
<trkpt lat="31.8162600" lon="35.0001700">
<ele>244.309998</ele>
<time>2020-10-07T18:19:54.580Z</time>
</trkpt>
<trkpt lat="31.8163300" lon="35.0000800">
<ele>243.169998</ele>
<time>2020-10-07T18:19:54.580Z</time>
</trkpt>
<trkpt lat="31.8164500" lon="34.9999800">
<ele>242.950012</ele>
<time>2020-10-07T18:19:54.580Z</time>
</trkpt>
<trkpt lat="31.8166900" lon="34.9998700">
<ele>244.289993</ele>
<time>2020-10-07T18:19:54.580Z</time>
</trkpt>
<trkpt lat="31.8169300" lon="34.9998100">
<ele>247.879990</ele>
<time>2020-10-07T18:19:54.580Z</time>
</trkpt>
<trkpt lat="31.8170400" lon="34.9998100">
<ele>247.989990</ele>
<time>2020-10-07T18:19:54.580Z</time>
</trkpt>
<trkpt lat="31.8171800" lon="34.9998500">
<ele>248.440002</ele>
<time>2020-10-07T18:19:54.580Z</time>
</trkpt>
<trkpt lat="31.8173800" lon="34.9999400">
<ele>249.149994</ele>
<time>2020-10-07T18:19:54.580Z</time>
</trkpt>
<trkpt lat="31.8174000" lon="34.9999500">
<ele>249.169998</ele>
<time>2020-10-07T18:19:54.580Z</time>
</trkpt>
<trkpt lat="31.8174000" lon="34.9999500">
<ele>249.169998</ele>
<time>2020-10-07T18:19:54.580Z</time>
</trkpt>
<trkpt lat="31.8174000" lon="34.9999500">
<ele>249.169998</ele>
<time>2020-10-07T18:19:54.580Z</time>
</trkpt>
<trkpt lat="31.8175400" lon="35.0000500">
<ele>247.530014</ele>
<time>2020-10-07T18:19:54.580Z</time>
</trkpt>
<trkpt lat="31.8178000" lon="35.0003400">
<ele>238.809998</ele>
<time>2020-10-07T18:19:54.580Z</time>
</trkpt>
<trkpt lat="31.8178400" lon="35.0003600">
<ele>239.270004</ele>
<time>2020-10-07T18:19:54.580Z</time>
</trkpt>
<trkpt lat="31.8179700" lon="35.0006400">
<ele>243.330002</ele>
<time>2020-10-07T18:19:54.580Z</time>
</trkpt>
<trkpt lat="31.8181500" lon="35.0017000">
<ele>264.220001</ele>
<time>2020-10-07T18:19:54.580Z</time>
</trkpt>
<trkpt lat="31.8181900" lon="35.0020000">
<ele>266.489990</ele>
<time>2020-10-07T18:19:54.580Z</time>
</trkpt>
<trkpt lat="31.8179900" lon="35.0022700">
<ele>263.119995</ele>
<time>2020-10-07T18:19:54.580Z</time>
</trkpt>
<trkpt lat="31.8179200" lon="35.0025800">
<ele>264.649994</ele>
<time>2020-10-07T18:19:54.580Z</time>
</trkpt>
<trkpt lat="31.8178200" lon="35.0027100">
<ele>265.329987</ele>
<time>2020-10-07T18:19:54.580Z</time>
</trkpt>
<trkpt lat="31.8176000" lon="35.0029400">
<ele>266.360016</ele>
<time>2020-10-07T18:19:54.580Z</time>
</trkpt>
<trkpt lat="31.8175200" lon="35.0031400">
<ele>268.550018</ele>
<time>2020-10-07T18:19:54.580Z</time>
</trkpt>
<trkpt lat="31.8174600" lon="35.0033300">
<ele>270.380005</ele>
<time>2020-10-07T18:19:54.580Z</time>
</trkpt>
<trkpt lat="31.8172400" lon="35.0040700">
<ele>276.640015</ele>
<time>2020-10-07T18:19:54.580Z</time>
</trkpt>
<trkpt lat="31.8172100" lon="35.0044100">
<ele>282.459991</ele>
<time>2020-10-07T18:19:54.580Z</time>
</trkpt>
<trkpt lat="31.8172100" lon="35.0044100">
<ele>282.459991</ele>
<time>2020-10-07T18:19:54.580Z</time>
</trkpt>
<trkpt lat="31.8172100" lon="35.0044100">
<ele>282.459991</ele>
<time>2020-10-07T18:19:54.580Z</time>
</trkpt>
<trkpt lat="31.8172000" lon="35.0045100">
<ele>284.609985</ele>
<time>2020-10-07T18:19:54.580Z</time>
</trkpt>
<trkpt lat="31.8172200" lon="35.0049200">
<ele>292.589996</ele>
<time>2020-10-07T18:19:54.580Z</time>
</trkpt>
<trkpt lat="31.8171600" lon="35.0052100">
<ele>295.730011</ele>
<time>2020-10-07T18:19:54.580Z</time>
</trkpt>
<trkpt lat="31.8170400" lon="35.0055500">
<ele>295.690002</ele>
<time>2020-10-07T18:19:54.580Z</time>
</trkpt>
<trkpt lat="31.8170400" lon="35.0059400">
<ele>296.839996</ele>
<time>2020-10-07T18:19:54.580Z</time>
</trkpt>
<trkpt lat="31.8169000" lon="35.0066300">
<ele>314.159973</ele>
<time>2020-10-07T18:19:54.580Z</time>
</trkpt>
<trkpt lat="31.8165500" lon="35.0073700">
<ele>336.519989</ele>
<time>2020-10-07T18:19:54.581Z</time>
</trkpt>
<trkpt lat="31.8163500" lon="35.0092000">
<ele>331.619995</ele>
<time>2020-10-07T18:19:54.581Z</time>
</trkpt>
<trkpt lat="31.8162500" lon="35.0096200">
<ele>330.370026</ele>
<time>2020-10-07T18:19:54.581Z</time>
</trkpt>
<trkpt lat="31.8163100" lon="35.0100700">
<ele>333.940002</ele>
<time>2020-10-07T18:19:54.581Z</time>
</trkpt>
<trkpt lat="31.8160700" lon="35.0111000">
<ele>343.520020</ele>
<time>2020-10-07T18:19:54.581Z</time>
</trkpt>
<trkpt lat="31.8159900" lon="35.0115900">
<ele>342.610016</ele>
<time>2020-10-07T18:19:54.581Z</time>
</trkpt>
<trkpt lat="31.8157400" lon="35.0121800">
<ele>344.800018</ele>
<time>2020-10-07T18:19:54.581Z</time>
</trkpt>
<trkpt lat="31.8155900" lon="35.0124500">
<ele>345.100006</ele>
<time>2020-10-07T18:19:54.581Z</time>
</trkpt>
<trkpt lat="31.8155300" lon="35.0125600">
<ele>345.520020</ele>
<time>2020-10-07T18:19:54.581Z</time>
</trkpt>
<trkpt lat="31.8154200" lon="35.0126800">
<ele>346.779999</ele>
<time>2020-10-07T18:19:54.581Z</time>
</trkpt>
<trkpt lat="31.8153600" lon="35.0127100">
<ele>347.220001</ele>
<time>2020-10-07T18:19:54.581Z</time>
</trkpt>
<trkpt lat="31.8152400" lon="35.0128200">
<ele>348.100006</ele>
<time>2020-10-07T18:19:54.581Z</time>
</trkpt>
<trkpt lat="31.8152700" lon="35.0130300">
<ele>350.570007</ele>
<time>2020-10-07T18:19:54.581Z</time>
</trkpt>
<trkpt lat="31.8153000" lon="35.0132500">
<ele>352.559998</ele>
<time>2020-10-07T18:19:54.581Z</time>
</trkpt>
<trkpt lat="31.8150300" lon="35.0137000">
<ele>350.499969</ele>
<time>2020-10-07T18:19:54.581Z</time>
</trkpt>
<trkpt lat="31.8149800" lon="35.0141800">
<ele>354.720001</ele>
<time>2020-10-07T18:19:54.581Z</time>
</trkpt>
<trkpt lat="31.8148100" lon="35.0145600">
<ele>353.230011</ele>
<time>2020-10-07T18:19:54.581Z</time>
</trkpt>
<trkpt lat="31.8148100" lon="35.0149400">
<ele>354.459991</ele>
<time>2020-10-07T18:19:54.581Z</time>
</trkpt>
<trkpt lat="31.8146400" lon="35.0153000">
<ele>354.980011</ele>
<time>2020-10-07T18:19:54.581Z</time>
</trkpt>
<trkpt lat="31.8139100" lon="35.0161200">
<ele>353.960022</ele>
<time>2020-10-07T18:19:54.581Z</time>
</trkpt>
<trkpt lat="31.8135400" lon="35.0169200">
<ele>353.250000</ele>
<time>2020-10-07T18:19:54.581Z</time>
</trkpt>
<trkpt lat="31.8135400" lon="35.0174400">
<ele>353.220001</ele>
<time>2020-10-07T18:19:54.581Z</time>
</trkpt>
<trkpt lat="31.8136800" lon="35.0181800">
<ele>343.119995</ele>
<time>2020-10-07T18:19:54.581Z</time>
</trkpt>
<trkpt lat="31.8139000" lon="35.0185800">
<ele>333.959991</ele>
<time>2020-10-07T18:19:54.581Z</time>
</trkpt>
<trkpt lat="31.8142300" lon="35.0187100">
<ele>340.809998</ele>
<time>2020-10-07T18:19:54.581Z</time>
</trkpt>
<trkpt lat="31.8142600" lon="35.0188200">
<ele>340.750000</ele>
<time>2020-10-07T18:19:54.581Z</time>
</trkpt>
<trkpt lat="31.8143800" lon="35.0187800">
<ele>341.330017</ele>
<time>2020-10-07T18:19:54.581Z</time>
</trkpt>
<trkpt lat="31.8143800" lon="35.0187800">
<ele>341.330017</ele>
<time>2020-10-07T18:19:54.581Z</time>
</trkpt>
<trkpt lat="31.8143800" lon="35.0187800">
<ele>341.330017</ele>
<time>2020-10-07T18:19:54.581Z</time>
</trkpt>
<trkpt lat="31.8146900" lon="35.0186800">
<ele>343.239990</ele>
<time>2020-10-07T18:19:54.581Z</time>
</trkpt>
<trkpt lat="31.8151500" lon="35.0184900">
<ele>337.789978</ele>
<time>2020-10-07T18:19:54.581Z</time>
</trkpt>
<trkpt lat="31.8155200" lon="35.0183600">
<ele>338.389984</ele>
<time>2020-10-07T18:19:54.581Z</time>
</trkpt>
<trkpt lat="31.8155700" lon="35.0182300">
<ele>339.239990</ele>
<time>2020-10-07T18:19:54.581Z</time>
</trkpt>
<trkpt lat="31.8155700" lon="35.0182300">
<ele>339.239990</ele>
<time>2020-10-07T18:19:54.581Z</time>
</trkpt>
<trkpt lat="31.8155700" lon="35.0182300">
<ele>339.239990</ele>
<time>2020-10-07T18:19:54.581Z</time>
</trkpt>
<trkpt lat="31.8154200" lon="35.0178500">
<ele>341.609985</ele>
<time>2020-10-07T18:19:54.581Z</time>
</trkpt>
<trkpt lat="31.8151300" lon="35.0173100">
<ele>349.890015</ele>
<time>2020-10-07T18:19:54.581Z</time>
</trkpt>
<trkpt lat="31.8150400" lon="35.0170300">
<ele>349.779999</ele>
<time>2020-10-07T18:19:54.581Z</time>
</trkpt>
<trkpt lat="31.8150900" lon="35.0166400">
<ele>350.320007</ele>
<time>2020-10-07T18:19:54.581Z</time>
</trkpt>
<trkpt lat="31.8152300" lon="35.0154600">
<ele>344.750000</ele>
<time>2020-10-07T18:19:54.581Z</time>
</trkpt>
<trkpt lat="31.8154600" lon="35.0146000">
<ele>341.890015</ele>
<time>2020-10-07T18:19:54.581Z</time>
</trkpt>
<trkpt lat="31.8156900" lon="35.0141900">
<ele>338.399994</ele>
<time>2020-10-07T18:19:54.581Z</time>
</trkpt>
<trkpt lat="31.8157300" lon="35.0139700">
<ele>341.230011</ele>
<time>2020-10-07T18:19:54.581Z</time>
</trkpt>
<trkpt lat="31.8157600" lon="35.0135900">
<ele>348.429993</ele>
<time>2020-10-07T18:19:54.582Z</time>
</trkpt>
<trkpt lat="31.8160500" lon="35.0131000">
<ele>343.760010</ele>
<time>2020-10-07T18:19:54.582Z</time>
</trkpt>
<trkpt lat="31.8161300" lon="35.0127300">
<ele>344.049988</ele>
<time>2020-10-07T18:19:54.582Z</time>
</trkpt>
<trkpt lat="31.8161900" lon="35.0123100">
<ele>344.450012</ele>
<time>2020-10-07T18:19:54.582Z</time>
</trkpt>
<trkpt lat="31.8162700" lon="35.0118600">
<ele>342.369995</ele>
<time>2020-10-07T18:19:54.582Z</time>
</trkpt>
<trkpt lat="31.8166400" lon="35.0112200">
<ele>343.410004</ele>
<time>2020-10-07T18:19:54.582Z</time>
</trkpt>
<trkpt lat="31.8167500" lon="35.0106800">
<ele>343.680023</ele>
<time>2020-10-07T18:19:54.582Z</time>
</trkpt>
<trkpt lat="31.8167700" lon="35.0104300">
<ele>342.700012</ele>
<time>2020-10-07T18:19:54.582Z</time>
</trkpt>
<trkpt lat="31.8167400" lon="35.0100000">
<ele>337.109985</ele>
<time>2020-10-07T18:19:54.582Z</time>
</trkpt>
<trkpt lat="31.8167400" lon="35.0093200">
<ele>331.830017</ele>
<time>2020-10-07T18:19:54.582Z</time>
</trkpt>
<trkpt lat="31.8167900" lon="35.0089400">
<ele>329.950012</ele>
<time>2020-10-07T18:19:54.582Z</time>
</trkpt>
<trkpt lat="31.8168400" lon="35.0087000">
<ele>328.539978</ele>
<time>2020-10-07T18:19:54.582Z</time>
</trkpt>
<trkpt lat="31.8169200" lon="35.0084600">
<ele>326.619995</ele>
<time>2020-10-07T18:19:54.582Z</time>
</trkpt>
<trkpt lat="31.8170600" lon="35.0081200">
<ele>323.589996</ele>
<time>2020-10-07T18:19:54.582Z</time>
</trkpt>
<trkpt lat="31.8174200" lon="35.0074300">
<ele>324.550018</ele>
<time>2020-10-07T18:19:54.582Z</time>
</trkpt>
<trkpt lat="31.8174900" lon="35.0073300">
<ele>324.420013</ele>
<time>2020-10-07T18:19:54.582Z</time>
</trkpt>
<trkpt lat="31.8178800" lon="35.0068300">
<ele>324.220001</ele>
<time>2020-10-07T18:19:54.582Z</time>
</trkpt>
<trkpt lat="31.8185500" lon="35.0061200">
<ele>328.910004</ele>
<time>2020-10-07T18:19:54.582Z</time>
</trkpt>
<trkpt lat="31.8187400" lon="35.0058700">
<ele>330.590027</ele>
<time>2020-10-07T18:19:54.582Z</time>
</trkpt>
<trkpt lat="31.8187800" lon="35.0058000">
<ele>330.779999</ele>
<time>2020-10-07T18:19:54.582Z</time>
</trkpt>
<trkpt lat="31.8187900" lon="35.0051700">
<ele>330.350006</ele>
<time>2020-10-07T18:19:54.582Z</time>
</trkpt>
<trkpt lat="31.8188100" lon="35.0048700">
<ele>325.620026</ele>
<time>2020-10-07T18:19:54.582Z</time>
</trkpt>
<trkpt lat="31.8191800" lon="35.0025300">
<ele>298.519989</ele>
<time>2020-10-07T18:19:54.582Z</time>
</trkpt>
<trkpt lat="31.8192600" lon="35.0013100">
<ele>287.539978</ele>
<time>2020-10-07T18:19:54.582Z</time>
</trkpt>
<trkpt lat="31.8193300" lon="35.0008000">
<ele>282.040009</ele>
<time>2020-10-07T18:19:54.582Z</time>
</trkpt>
<trkpt lat="31.8193200" lon="35.0003000">
<ele>277.720001</ele>
<time>2020-10-07T18:19:54.582Z</time>
</trkpt>
<trkpt lat="31.8192100" lon="34.9998500">
<ele>271.320007</ele>
<time>2020-10-07T18:19:54.582Z</time>
</trkpt>
<trkpt lat="31.8191900" lon="34.9996400">
<ele>265.859985</ele>
<time>2020-10-07T18:19:54.582Z</time>
</trkpt>
<trkpt lat="31.8192300" lon="34.9994800">
<ele>262.089996</ele>
<time>2020-10-07T18:19:54.582Z</time>
</trkpt>
<trkpt lat="31.8194800" lon="34.9990600">
<ele>259.750000</ele>
<time>2020-10-07T18:19:54.582Z</time>
</trkpt>
<trkpt lat="31.8195000" lon="34.9989800">
<ele>258.029999</ele>
<time>2020-10-07T18:19:54.582Z</time>
</trkpt>
<trkpt lat="31.8195000" lon="34.9989800">
<ele>258.029999</ele>
<time>2020-10-07T18:19:54.582Z</time>
</trkpt>
<trkpt lat="31.8195000" lon="34.9989800">
<ele>258.029999</ele>
<time>2020-10-07T18:19:54.582Z</time>
</trkpt>
<trkpt lat="31.8195500" lon="34.9988400">
<ele>256.019989</ele>
<time>2020-10-07T18:19:54.582Z</time>
</trkpt>
<trkpt lat="31.8197600" lon="34.9987400">
<ele>259.350006</ele>
<time>2020-10-07T18:19:54.582Z</time>
</trkpt>
<trkpt lat="31.8198400" lon="34.9987300">
<ele>261.209991</ele>
<time>2020-10-07T18:19:54.582Z</time>
</trkpt>
<trkpt lat="31.8199700" lon="34.9987600">
<ele>264.299988</ele>
<time>2020-10-07T18:19:54.582Z</time>
</trkpt>
<trkpt lat="31.8202000" lon="34.9989000">
<ele>267.330017</ele>
<time>2020-10-07T18:19:54.582Z</time>
</trkpt>
<trkpt lat="31.8205100" lon="34.9992800">
<ele>272.809998</ele>
<time>2020-10-07T18:19:54.582Z</time>
</trkpt>
<trkpt lat="31.8206300" lon="34.9993400">
<ele>270.450012</ele>
<time>2020-10-07T18:19:54.582Z</time>
</trkpt>
<trkpt lat="31.8206700" lon="34.9993500">
<ele>269.360016</ele>
<time>2020-10-07T18:19:54.582Z</time>
</trkpt>
<trkpt lat="31.8208100" lon="34.9994100">
<ele>266.119995</ele>
<time>2020-10-07T18:19:54.582Z</time>
</trkpt>
<trkpt lat="31.8210000" lon="34.9995600">
<ele>265.149994</ele>
<time>2020-10-07T18:19:54.582Z</time>
</trkpt>
<trkpt lat="31.8210900" lon="34.9996700">
<ele>266.079987</ele>
<time>2020-10-07T18:19:54.582Z</time>
</trkpt>
<trkpt lat="31.8211400" lon="34.9997800">
<ele>267.790009</ele>
<time>2020-10-07T18:19:54.582Z</time>
</trkpt>
<trkpt lat="31.8212200" lon="35.0001300">
<ele>271.630005</ele>
<time>2020-10-07T18:19:54.583Z</time>
</trkpt>
<trkpt lat="31.8212100" lon="35.0002300">
<ele>272.579987</ele>
<time>2020-10-07T18:19:54.583Z</time>
</trkpt>
<trkpt lat="31.8211500" lon="35.0004200">
<ele>275.489990</ele>
<time>2020-10-07T18:19:54.583Z</time>
</trkpt>
<trkpt lat="31.8211400" lon="35.0005000">
<ele>276.920013</ele>
<time>2020-10-07T18:19:54.583Z</time>
</trkpt>
<trkpt lat="31.8211600" lon="35.0005900">
<ele>278.380005</ele>
<time>2020-10-07T18:19:54.583Z</time>
</trkpt>
<trkpt lat="31.8213000" lon="35.0010400">
<ele>280.989990</ele>
<time>2020-10-07T18:19:54.583Z</time>
</trkpt>
<trkpt lat="31.8215000" lon="35.0015100">
<ele>275.130005</ele>
<time>2020-10-07T18:19:54.583Z</time>
</trkpt>
<trkpt lat="31.8216500" lon="35.0018200">
<ele>272.399994</ele>
<time>2020-10-07T18:19:54.583Z</time>
</trkpt>
<trkpt lat="31.8218200" lon="35.0021200">
<ele>272.059998</ele>
<time>2020-10-07T18:19:54.583Z</time>
</trkpt>
<trkpt lat="31.8218300" lon="35.0022000">
<ele>272.489990</ele>
<time>2020-10-07T18:19:54.583Z</time>
</trkpt>
<trkpt lat="31.8218200" lon="35.0023700">
<ele>274.390015</ele>
<time>2020-10-07T18:19:54.583Z</time>
</trkpt>
<trkpt lat="31.8217900" lon="35.0025700">
<ele>276.589996</ele>
<time>2020-10-07T18:19:54.583Z</time>
</trkpt>
<trkpt lat="31.8217700" lon="35.0026600">
<ele>277.300018</ele>
<time>2020-10-07T18:19:54.583Z</time>
</trkpt>
<trkpt lat="31.8215700" lon="35.0032000">
<ele>288.670013</ele>
<time>2020-10-07T18:19:54.583Z</time>
</trkpt>
<trkpt lat="31.8215700" lon="35.0032100">
<ele>288.829987</ele>
<time>2020-10-07T18:19:54.583Z</time>
</trkpt>
<trkpt lat="31.8215900" lon="35.0032800">
<ele>289.529999</ele>
<time>2020-10-07T18:19:54.583Z</time>
</trkpt>
<trkpt lat="31.8216300" lon="35.0033100">
<ele>289.260010</ele>
<time>2020-10-07T18:19:54.583Z</time>
</trkpt>
<trkpt lat="31.8217100" lon="35.0033300">
<ele>288.160004</ele>
<time>2020-10-07T18:19:54.583Z</time>
</trkpt>
<trkpt lat="31.8221100" lon="35.0032600">
<ele>281.359985</ele>
<time>2020-10-07T18:19:54.583Z</time>
</trkpt>
<trkpt lat="31.8224500" lon="35.0032300">
<ele>278.619995</ele>
<time>2020-10-07T18:19:54.583Z</time>
</trkpt>
<trkpt lat="31.8225800" lon="35.0032500">
<ele>279.489990</ele>
<time>2020-10-07T18:19:54.583Z</time>
</trkpt>
<trkpt lat="31.8227300" lon="35.0032900">
<ele>282.309998</ele>
<time>2020-10-07T18:19:54.583Z</time>
</trkpt>
<trkpt lat="31.8228100" lon="35.0033400">
<ele>284.029999</ele>
<time>2020-10-07T18:19:54.583Z</time>
</trkpt>
<trkpt lat="31.8229100" lon="35.0034600">
<ele>284.669983</ele>
<time>2020-10-07T18:19:54.583Z</time>
</trkpt>
<trkpt lat="31.8229100" lon="35.0034600">
<ele>284.669983</ele>
<time>2020-10-07T18:19:54.583Z</time>
</trkpt>
<trkpt lat="31.8229100" lon="35.0034600">
<ele>284.669983</ele>
<time>2020-10-07T18:19:54.583Z</time>
</trkpt>
<trkpt lat="31.8230300" lon="35.0036100">
<ele>285.899994</ele>
<time>2020-10-07T18:19:54.583Z</time>
</trkpt>
<trkpt lat="31.8231400" lon="35.0037600">
<ele>283.500000</ele>
<time>2020-10-07T18:19:54.583Z</time>
</trkpt>
<trkpt lat="31.8231700" lon="35.0038800">
<ele>282.550018</ele>
<time>2020-10-07T18:19:54.583Z</time>
</trkpt>
<trkpt lat="31.8232200" lon="35.0044100">
<ele>278.050018</ele>
<time>2020-10-07T18:19:54.583Z</time>
</trkpt>
<trkpt lat="31.8232500" lon="35.0045700">
<ele>276.020020</ele>
<time>2020-10-07T18:19:54.583Z</time>
</trkpt>
<trkpt lat="31.8233600" lon="35.0049500">
<ele>271.000000</ele>
<time>2020-10-07T18:19:54.583Z</time>
</trkpt>
<trkpt lat="31.8233700" lon="35.0050600">
<ele>269.600006</ele>
<time>2020-10-07T18:19:54.583Z</time>
</trkpt>
<trkpt lat="31.8233400" lon="35.0053800">
<ele>267.630005</ele>
<time>2020-10-07T18:19:54.583Z</time>
</trkpt>
<trkpt lat="31.8233000" lon="35.0055700">
<ele>266.170013</ele>
<time>2020-10-07T18:19:54.583Z</time>
</trkpt>
<trkpt lat="31.8232200" lon="35.0058100">
<ele>264.679993</ele>
<time>2020-10-07T18:19:54.583Z</time>
</trkpt>
<trkpt lat="31.8230400" lon="35.0061400">
<ele>264.730011</ele>
<time>2020-10-07T18:19:54.583Z</time>
</trkpt>
<trkpt lat="31.8229400" lon="35.0062500">
<ele>265.119995</ele>
<time>2020-10-07T18:19:54.583Z</time>
</trkpt>
<trkpt lat="31.8228100" lon="35.0064400">
<ele>265.669983</ele>
<time>2020-10-07T18:19:54.583Z</time>
</trkpt>
<trkpt lat="31.8225600" lon="35.0067100">
<ele>266.450012</ele>
<time>2020-10-07T18:19:54.583Z</time>
</trkpt>
<trkpt lat="31.8224600" lon="35.0067900">
<ele>268.149994</ele>
<time>2020-10-07T18:19:54.583Z</time>
</trkpt>
<trkpt lat="31.8223800" lon="35.0068100">
<ele>269.750000</ele>
<time>2020-10-07T18:19:54.583Z</time>
</trkpt>
<trkpt lat="31.8220600" lon="35.0068300">
<ele>279.559998</ele>
<time>2020-10-07T18:19:54.583Z</time>
</trkpt>
<trkpt lat="31.8219900" lon="35.0068500">
<ele>281.950012</ele>
<time>2020-10-07T18:19:54.583Z</time>
</trkpt>
<trkpt lat="31.8219300" lon="35.0068800">
<ele>283.779999</ele>
<time>2020-10-07T18:19:54.583Z</time>
</trkpt>
<trkpt lat="31.8218900" lon="35.0069400">
<ele>284.429993</ele>
<time>2020-10-07T18:19:54.583Z</time>
</trkpt>
<trkpt lat="31.8217500" lon="35.0072600">
<ele>282.109985</ele>
<time>2020-10-07T18:19:54.583Z</time>
</trkpt>
<trkpt lat="31.8214000" lon="35.0077100">
<ele>283.720001</ele>
<time>2020-10-07T18:19:54.583Z</time>
</trkpt>
<trkpt lat="31.8212300" lon="35.0080200">
<ele>289.559998</ele>
<time>2020-10-07T18:19:54.583Z</time>
</trkpt>
<trkpt lat="31.8210800" lon="35.0084300">
<ele>297.360016</ele>
<time>2020-10-07T18:19:54.583Z</time>
</trkpt>
<trkpt lat="31.8210500" lon="35.0085000">
<ele>297.679993</ele>
<time>2020-10-07T18:19:54.583Z</time>
</trkpt>
<trkpt lat="31.8207700" lon="35.0087900">
<ele>299.559998</ele>
<time>2020-10-07T18:19:54.584Z</time>
</trkpt>
<trkpt lat="31.8204800" lon="35.0089700">
<ele>305.199982</ele>
<time>2020-10-07T18:19:54.584Z</time>
</trkpt>
<trkpt lat="31.8203800" lon="35.0090800">
<ele>309.419983</ele>
<time>2020-10-07T18:19:54.584Z</time>
</trkpt>
<trkpt lat="31.8203300" lon="35.0091700">
<ele>311.119995</ele>
<time>2020-10-07T18:19:54.584Z</time>
</trkpt>
<trkpt lat="31.8203100" lon="35.0092900">
<ele>310.040009</ele>
<time>2020-10-07T18:19:54.584Z</time>
</trkpt>
<trkpt lat="31.8203200" lon="35.0093600">
<ele>308.239990</ele>
<time>2020-10-07T18:19:54.584Z</time>
</trkpt>
<trkpt lat="31.8203500" lon="35.0094300">
<ele>305.360016</ele>
<time>2020-10-07T18:19:54.584Z</time>
</trkpt>
<trkpt lat="31.8204300" lon="35.0095400">
<ele>299.440002</ele>
<time>2020-10-07T18:19:54.584Z</time>
</trkpt>
<trkpt lat="31.8204700" lon="35.0096700">
<ele>295.679993</ele>
<time>2020-10-07T18:19:54.584Z</time>
</trkpt>
<trkpt lat="31.8205100" lon="35.0100200">
<ele>289.019989</ele>
<time>2020-10-07T18:19:54.584Z</time>
</trkpt>
<trkpt lat="31.8205000" lon="35.0101600">
<ele>288.679993</ele>
<time>2020-10-07T18:19:54.584Z</time>
</trkpt>
<trkpt lat="31.8204200" lon="35.0104900">
<ele>293.209991</ele>
<time>2020-10-07T18:19:54.584Z</time>
</trkpt>
<trkpt lat="31.8204100" lon="35.0106200">
<ele>293.799988</ele>
<time>2020-10-07T18:19:54.584Z</time>
</trkpt>
<trkpt lat="31.8204500" lon="35.0110500">
<ele>290.690002</ele>
<time>2020-10-07T18:19:54.584Z</time>
</trkpt>
<trkpt lat="31.8204300" lon="35.0111900">
<ele>289.959991</ele>
<time>2020-10-07T18:19:54.584Z</time>
</trkpt>
<trkpt lat="31.8204300" lon="35.0111900">
<ele>289.959991</ele>
<time>2020-10-07T18:19:54.584Z</time>
</trkpt>
<trkpt lat="31.8204300" lon="35.0111900">
<ele>289.959991</ele>
<time>2020-10-07T18:19:54.584Z</time>
</trkpt>
<trkpt lat="31.8204300" lon="35.0112000">
<ele>289.820007</ele>
<time>2020-10-07T18:19:54.584Z</time>
</trkpt>
<trkpt lat="31.8202500" lon="35.0115000">
<ele>291.399994</ele>
<time>2020-10-07T18:19:54.584Z</time>
</trkpt>
<trkpt lat="31.8199900" lon="35.0117100">
<ele>298.980011</ele>
<time>2020-10-07T18:19:54.584Z</time>
</trkpt>
<trkpt lat="31.8197900" lon="35.0118100">
<ele>307.229980</ele>
<time>2020-10-07T18:19:54.584Z</time>
</trkpt>
<trkpt lat="31.8193900" lon="35.0119000">
<ele>309.899994</ele>
<time>2020-10-07T18:19:54.584Z</time>
</trkpt>
<trkpt lat="31.8189000" lon="35.0119700">
<ele>305.350006</ele>
<time>2020-10-07T18:19:54.584Z</time>
</trkpt>
<trkpt lat="31.8186500" lon="35.0121200">
<ele>307.760010</ele>
<time>2020-10-07T18:19:54.584Z</time>
</trkpt>
<trkpt lat="31.8185400" lon="35.0121800">
<ele>308.880005</ele>
<time>2020-10-07T18:19:54.584Z</time>
</trkpt>
<trkpt lat="31.8184300" lon="35.0122100">
<ele>309.580017</ele>
<time>2020-10-07T18:19:54.584Z</time>
</trkpt>
<trkpt lat="31.8184900" lon="35.0125200">
<ele>313.089996</ele>
<time>2020-10-07T18:19:54.584Z</time>
</trkpt>
<trkpt lat="31.8183800" lon="35.0129500">
<ele>314.799988</ele>
<time>2020-10-07T18:19:54.584Z</time>
</trkpt>
<trkpt lat="31.8184400" lon="35.0136200">
<ele>304.059998</ele>
<time>2020-10-07T18:19:54.584Z</time>
</trkpt>
<trkpt lat="31.8184100" lon="35.0137600">
<ele>301.529999</ele>
<time>2020-10-07T18:19:54.584Z</time>
</trkpt>
<trkpt lat="31.8182500" lon="35.0140200">
<ele>298.450012</ele>
<time>2020-10-07T18:19:54.584Z</time>
</trkpt>
<trkpt lat="31.8180900" lon="35.0141700">
<ele>299.339996</ele>
<time>2020-10-07T18:19:54.584Z</time>
</trkpt>
<trkpt lat="31.8179800" lon="35.0142500">
<ele>299.889984</ele>
<time>2020-10-07T18:19:54.584Z</time>
</trkpt>
<trkpt lat="31.8176300" lon="35.0144500">
<ele>300.429993</ele>
<time>2020-10-07T18:19:54.584Z</time>
</trkpt>
<trkpt lat="31.8175200" lon="35.0145300">
<ele>299.119995</ele>
<time>2020-10-07T18:19:54.584Z</time>
</trkpt>
<trkpt lat="31.8172800" lon="35.0147400">
<ele>296.699982</ele>
<time>2020-10-07T18:19:54.584Z</time>
</trkpt>
<trkpt lat="31.8170600" lon="35.0148900">
<ele>301.820007</ele>
<time>2020-10-07T18:19:54.584Z</time>
</trkpt>
<trkpt lat="31.8169900" lon="35.0149700">
<ele>303.229980</ele>
<time>2020-10-07T18:19:54.584Z</time>
</trkpt>
<trkpt lat="31.8168900" lon="35.0151700">
<ele>304.820007</ele>
<time>2020-10-07T18:19:54.584Z</time>
</trkpt>
<trkpt lat="31.8168700" lon="35.0153000">
<ele>304.639984</ele>
<time>2020-10-07T18:19:54.584Z</time>
</trkpt>
<trkpt lat="31.8168800" lon="35.0156100">
<ele>302.549988</ele>
<time>2020-10-07T18:19:54.584Z</time>
</trkpt>
<trkpt lat="31.8168300" lon="35.0158100">
<ele>302.700012</ele>
<time>2020-10-07T18:19:54.584Z</time>
</trkpt>
<trkpt lat="31.8168400" lon="35.0159100">
<ele>303.229980</ele>
<time>2020-10-07T18:19:54.584Z</time>
</trkpt>
<trkpt lat="31.8168800" lon="35.0160000">
<ele>303.589996</ele>
<time>2020-10-07T18:19:54.584Z</time>
</trkpt>
<trkpt lat="31.8169700" lon="35.0159100">
<ele>301.779999</ele>
<time>2020-10-07T18:19:54.584Z</time>
</trkpt>
<trkpt lat="31.8174400" lon="35.0155500">
<ele>298.420013</ele>
<time>2020-10-07T18:19:54.584Z</time>
</trkpt>
<trkpt lat="31.8175600" lon="35.0154900">
<ele>298.529999</ele>
<time>2020-10-07T18:19:54.584Z</time>
</trkpt>
<trkpt lat="31.8182700" lon="35.0152400">
<ele>295.050018</ele>
<time>2020-10-07T18:19:54.584Z</time>
</trkpt>
<trkpt lat="31.8183800" lon="35.0152200">
<ele>294.339996</ele>
<time>2020-10-07T18:19:54.584Z</time>
</trkpt>
<trkpt lat="31.8185800" lon="35.0152200">
<ele>294.190002</ele>
<time>2020-10-07T18:19:54.584Z</time>
</trkpt>
<trkpt lat="31.8189300" lon="35.0152800">
<ele>284.339996</ele>
<time>2020-10-07T18:19:54.584Z</time>
</trkpt>
<trkpt lat="31.8189300" lon="35.0152800">
<ele>284.339996</ele>
<time>2020-10-07T18:19:54.584Z</time>
</trkpt>
<trkpt lat="31.8189300" lon="35.0152800">
<ele>284.339996</ele>
<time>2020-10-07T18:19:54.584Z</time>
</trkpt>
<trkpt lat="31.8190300" lon="35.0152900">
<ele>282.829987</ele>
<time>2020-10-07T18:19:54.585Z</time>
</trkpt>
<trkpt lat="31.8192400" lon="35.0153500">
<ele>281.089996</ele>
<time>2020-10-07T18:19:54.585Z</time>
</trkpt>
<trkpt lat="31.8194000" lon="35.0154100">
<ele>280.450012</ele>
<time>2020-10-07T18:19:54.585Z</time>
</trkpt>
<trkpt lat="31.8197400" lon="35.0156100">
<ele>274.009979</ele>
<time>2020-10-07T18:19:54.585Z</time>
</trkpt>
<trkpt lat="31.8198900" lon="35.0156700">
<ele>269.799988</ele>
<time>2020-10-07T18:19:54.585Z</time>
</trkpt>
<trkpt lat="31.8201200" lon="35.0157100">
<ele>264.699982</ele>
<time>2020-10-07T18:19:54.585Z</time>
</trkpt>
<trkpt lat="31.8202400" lon="35.0157600">
<ele>263.119995</ele>
<time>2020-10-07T18:19:54.585Z</time>
</trkpt>
<trkpt lat="31.8203100" lon="35.0157600">
<ele>262.329987</ele>
<time>2020-10-07T18:19:54.585Z</time>
</trkpt>
<trkpt lat="31.8203600" lon="35.0157500">
<ele>262.070007</ele>
<time>2020-10-07T18:19:54.585Z</time>
</trkpt>
<trkpt lat="31.8204600" lon="35.0156700">
<ele>261.670013</ele>
<time>2020-10-07T18:19:54.585Z</time>
</trkpt>
<trkpt lat="31.8204300" lon="35.0156000">
<ele>261.600006</ele>
<time>2020-10-07T18:19:54.585Z</time>
</trkpt>
<trkpt lat="31.8204100" lon="35.0155100">
<ele>261.000000</ele>
<time>2020-10-07T18:19:54.585Z</time>
</trkpt>
<trkpt lat="31.8204100" lon="35.0153700">
<ele>259.540009</ele>
<time>2020-10-07T18:19:54.585Z</time>
</trkpt>
<trkpt lat="31.8204300" lon="35.0152900">
<ele>258.500000</ele>
<time>2020-10-07T18:19:54.585Z</time>
</trkpt>
<trkpt lat="31.8204900" lon="35.0151700">
<ele>258.100006</ele>
<time>2020-10-07T18:19:54.585Z</time>
</trkpt>
<trkpt lat="31.8205000" lon="35.0151500">
<ele>258.059998</ele>
<time>2020-10-07T18:19:54.585Z</time>
</trkpt>
<trkpt lat="31.8205000" lon="35.0151500">
<ele>258.059998</ele>
<time>2020-10-07T18:19:54.585Z</time>
</trkpt>
<trkpt lat="31.8205000" lon="35.0151500">
<ele>258.059998</ele>
<time>2020-10-07T18:19:54.585Z</time>
</trkpt>
<trkpt lat="31.8205600" lon="35.0150800">
<ele>257.720001</ele>
<time>2020-10-07T18:19:54.585Z</time>
</trkpt>
<trkpt lat="31.8207000" lon="35.0149700">
<ele>258.429993</ele>
<time>2020-10-07T18:19:54.585Z</time>
</trkpt>
<trkpt lat="31.8210100" lon="35.0147900">
<ele>259.929993</ele>
<time>2020-10-07T18:19:54.585Z</time>
</trkpt>
<trkpt lat="31.8211500" lon="35.0146800">
<ele>258.899994</ele>
<time>2020-10-07T18:19:54.585Z</time>
</trkpt>
<trkpt lat="31.8213900" lon="35.0144500">
<ele>253.099991</ele>
<time>2020-10-07T18:19:54.585Z</time>
</trkpt>
<trkpt lat="31.8214900" lon="35.0143100">
<ele>254.539993</ele>
<time>2020-10-07T18:19:54.585Z</time>
</trkpt>
<trkpt lat="31.8216100" lon="35.0140000">
<ele>255.399994</ele>
<time>2020-10-07T18:19:54.585Z</time>
</trkpt>
<trkpt lat="31.8219500" lon="35.0125300">
<ele>253.899994</ele>
<time>2020-10-07T18:19:54.585Z</time>
</trkpt>
<trkpt lat="31.8220000" lon="35.0122600">
<ele>254.690002</ele>
<time>2020-10-07T18:19:54.585Z</time>
</trkpt>
<trkpt lat="31.8220000" lon="35.0121100">
<ele>254.720001</ele>
<time>2020-10-07T18:19:54.585Z</time>
</trkpt>
<trkpt lat="31.8219800" lon="35.0120000">
<ele>254.769989</ele>
<time>2020-10-07T18:19:54.585Z</time>
</trkpt>
<trkpt lat="31.8218300" lon="35.0115500">
<ele>256.559998</ele>
<time>2020-10-07T18:19:54.585Z</time>
</trkpt>
<trkpt lat="31.8216900" lon="35.0109000">
<ele>255.179993</ele>
<time>2020-10-07T18:19:54.585Z</time>
</trkpt>
<trkpt lat="31.8215800" lon="35.0106400">
<ele>255.960007</ele>
<time>2020-10-07T18:19:54.585Z</time>
</trkpt>
<trkpt lat="31.8215000" lon="35.0104000">
<ele>256.100006</ele>
<time>2020-10-07T18:19:54.585Z</time>
</trkpt>
<trkpt lat="31.8214800" lon="35.0102900">
<ele>255.759995</ele>
<time>2020-10-07T18:19:54.585Z</time>
</trkpt>
<trkpt lat="31.8214900" lon="35.0101100">
<ele>254.939987</ele>
<time>2020-10-07T18:19:54.585Z</time>
</trkpt>
<trkpt lat="31.8215200" lon="35.0099300">
<ele>254.510010</ele>
<time>2020-10-07T18:19:54.585Z</time>
</trkpt>
<trkpt lat="31.8215600" lon="35.0098300">
<ele>254.239990</ele>
<time>2020-10-07T18:19:54.585Z</time>
</trkpt>
<trkpt lat="31.8216600" lon="35.0096800">
<ele>252.479996</ele>
<time>2020-10-07T18:19:54.585Z</time>
</trkpt>
<trkpt lat="31.8217600" lon="35.0095900">
<ele>251.960007</ele>
<time>2020-10-07T18:19:54.585Z</time>
</trkpt>
<trkpt lat="31.8223200" lon="35.0091800">
<ele>246.940002</ele>
<time>2020-10-07T18:19:54.585Z</time>
</trkpt>
<trkpt lat="31.8224200" lon="35.0090600">
<ele>246.360001</ele>
<time>2020-10-07T18:19:54.585Z</time>
</trkpt>
<trkpt lat="31.8225600" lon="35.0088600">
<ele>245.819992</ele>
<time>2020-10-07T18:19:54.585Z</time>
</trkpt>
<trkpt lat="31.8228100" lon="35.0081600">
<ele>244.349991</ele>
<time>2020-10-07T18:19:54.585Z</time>
</trkpt>
<trkpt lat="31.8229400" lon="35.0078800">
<ele>245.099991</ele>
<time>2020-10-07T18:19:54.585Z</time>
</trkpt>
<trkpt lat="31.8230500" lon="35.0076800">
<ele>245.040009</ele>
<time>2020-10-07T18:19:54.585Z</time>
</trkpt>
<trkpt lat="31.8239800" lon="35.0061500">
<ele>241.199997</ele>
<time>2020-10-07T18:19:54.585Z</time>
</trkpt>
<trkpt lat="31.8243900" lon="35.0056000">
<ele>235.099991</ele>
<time>2020-10-07T18:19:54.585Z</time>
</trkpt>
<trkpt lat="31.8245900" lon="35.0053600">
<ele>232.750000</ele>
<time>2020-10-07T18:19:54.585Z</time>
</trkpt>
<trkpt lat="31.8246100" lon="35.0053300">
<ele>232.489990</ele>
<time>2020-10-07T18:19:54.585Z</time>
</trkpt>
<trkpt lat="31.8246100" lon="35.0053300">
<ele>232.489990</ele>
<time>2020-10-07T18:19:54.585Z</time>
</trkpt>
<trkpt lat="31.8246100" lon="35.0053300">
<ele>232.489990</ele>
<time>2020-10-07T18:19:54.585Z</time>
</trkpt>
<trkpt lat="31.8248100" lon="35.0049800">
<ele>231.929993</ele>
<time>2020-10-07T18:19:54.585Z</time>
</trkpt>
<trkpt lat="31.8248700" lon="35.0048400">
<ele>232.290009</ele>
<time>2020-10-07T18:19:54.585Z</time>
</trkpt>
<trkpt lat="31.8249300" lon="35.0046500">
<ele>232.300003</ele>
<time>2020-10-07T18:19:54.585Z</time>
</trkpt>
<trkpt lat="31.8249600" lon="35.0044800">
<ele>231.970001</ele>
<time>2020-10-07T18:19:54.585Z</time>
</trkpt>
<trkpt lat="31.8251300" lon="35.0030700">
<ele>228.899994</ele>
<time>2020-10-07T18:19:54.585Z</time>
</trkpt>
<trkpt lat="31.8251600" lon="35.0026200">
<ele>230.629990</ele>
<time>2020-10-07T18:19:54.586Z</time>
</trkpt>
<trkpt lat="31.8250700" lon="35.0022100">
<ele>230.660004</ele>
<time>2020-10-07T18:19:54.586Z</time>
</trkpt>
<trkpt lat="31.8249100" lon="35.0017700">
<ele>229.240005</ele>
<time>2020-10-07T18:19:54.586Z</time>
</trkpt>
<trkpt lat="31.8246800" lon="35.0011700">
<ele>226.759995</ele>
<time>2020-10-07T18:19:54.586Z</time>
</trkpt>
<trkpt lat="31.8244700" lon="35.0007300">
<ele>225.110001</ele>
<time>2020-10-07T18:19:54.586Z</time>
</trkpt>
<trkpt lat="31.8244200" lon="35.0006200">
<ele>224.820007</ele>
<time>2020-10-07T18:19:54.586Z</time>
</trkpt>
<trkpt lat="31.8243800" lon="35.0004800">
<ele>224.449997</ele>
<time>2020-10-07T18:19:54.586Z</time>
</trkpt>
<trkpt lat="31.8241400" lon="34.9998200">
<ele>224.540009</ele>
<time>2020-10-07T18:19:54.586Z</time>
</trkpt>
<trkpt lat="31.8239700" lon="34.9994600">
<ele>226.199997</ele>
<time>2020-10-07T18:19:54.586Z</time>
</trkpt>
<trkpt lat="31.8238700" lon="34.9993000">
<ele>229.100006</ele>
<time>2020-10-07T18:19:54.586Z</time>
</trkpt>
<trkpt lat="31.8235800" lon="34.9989800">
<ele>237.429993</ele>
<time>2020-10-07T18:19:54.586Z</time>
</trkpt>
<trkpt lat="31.8235300" lon="34.9988800">
<ele>237.029999</ele>
<time>2020-10-07T18:19:54.586Z</time>
</trkpt>
<trkpt lat="31.8235100" lon="34.9987900">
<ele>235.940002</ele>
<time>2020-10-07T18:19:54.586Z</time>
</trkpt>
<trkpt lat="31.8235200" lon="34.9987000">
<ele>234.360001</ele>
<time>2020-10-07T18:19:54.586Z</time>
</trkpt>
<trkpt lat="31.8235800" lon="34.9982800">
<ele>227.779999</ele>
<time>2020-10-07T18:19:54.586Z</time>
</trkpt>
<trkpt lat="31.8235600" lon="34.9981400">
<ele>228.289993</ele>
<time>2020-10-07T18:19:54.586Z</time>
</trkpt>
<trkpt lat="31.8234400" lon="34.9978900">
<ele>230.940002</ele>
<time>2020-10-07T18:19:54.586Z</time>
</trkpt>
<trkpt lat="31.8233200" lon="34.9975200">
<ele>232.130005</ele>
<time>2020-10-07T18:19:54.586Z</time>
</trkpt>
<trkpt lat="31.8232000" lon="34.9969600">
<ele>228.549988</ele>
<time>2020-10-07T18:19:54.586Z</time>
</trkpt>
<trkpt lat="31.8232500" lon="34.9965200">
<ele>226.389999</ele>
<time>2020-10-07T18:19:54.586Z</time>
</trkpt>
<trkpt lat="31.8235100" lon="34.9958400">
<ele>220.300003</ele>
<time>2020-10-07T18:19:54.586Z</time>
</trkpt>
<trkpt lat="31.8235100" lon="34.9958400">
<ele>220.300003</ele>
<time>2020-10-07T18:19:54.586Z</time>
</trkpt>
<trkpt lat="31.8235100" lon="34.9958400">
<ele>220.300003</ele>
<time>2020-10-07T18:19:54.586Z</time>
</trkpt>
<trkpt lat="31.8228300" lon="34.9956900">
<ele>218.460007</ele>
<time>2020-10-07T18:19:54.586Z</time>
</trkpt>
<trkpt lat="31.8224800" lon="34.9954800">
<ele>213.529999</ele>
<time>2020-10-07T18:19:54.586Z</time>
</trkpt>
<trkpt lat="31.8221500" lon="34.9955200">
<ele>211.550003</ele>
<time>2020-10-07T18:19:54.586Z</time>
</trkpt>
<trkpt lat="31.8216000" lon="34.9961400">
<ele>209.210007</ele>
<time>2020-10-07T18:19:54.586Z</time>
</trkpt>
<trkpt lat="31.8212900" lon="34.9964000">
<ele>210.010010</ele>
<time>2020-10-07T18:19:54.586Z</time>
</trkpt>
<trkpt lat="31.8211400" lon="34.9964500">
<ele>208.750000</ele>
<time>2020-10-07T18:19:54.586Z</time>
</trkpt>
<trkpt lat="31.8208400" lon="34.9964700">
<ele>215.989990</ele>
<time>2020-10-07T18:19:54.586Z</time>
</trkpt>
<trkpt lat="31.8204600" lon="34.9964000">
<ele>223.589996</ele>
<time>2020-10-07T18:19:54.586Z</time>
</trkpt>
<trkpt lat="31.8199700" lon="34.9962900">
<ele>216.119995</ele>
<time>2020-10-07T18:19:54.586Z</time>
</trkpt>
<trkpt lat="31.8195200" lon="34.9962700">
<ele>217.030014</ele>
<time>2020-10-07T18:19:54.586Z</time>
</trkpt>
<trkpt lat="31.8191700" lon="34.9965700">
<ele>223.259995</ele>
<time>2020-10-07T18:19:54.586Z</time>
</trkpt>
<trkpt lat="31.8191900" lon="34.9966300">
<ele>224.389999</ele>
<time>2020-10-07T18:19:54.586Z</time>
</trkpt>
<trkpt lat="31.8191900" lon="34.9966300">
<ele>224.389999</ele>
<time>2020-10-07T18:19:54.586Z</time>
</trkpt>
<trkpt lat="31.8191900" lon="34.9966300">
<ele>224.389999</ele>
<time>2020-10-07T18:19:54.586Z</time>
</trkpt>
<trkpt lat="31.8191700" lon="34.9965700">
<ele>223.259995</ele>
<time>2020-10-07T18:19:54.586Z</time>
</trkpt>
<trkpt lat="31.8191500" lon="34.9964500">
<ele>221.300003</ele>
<time>2020-10-07T18:19:54.586Z</time>
</trkpt>
<trkpt lat="31.8188900" lon="34.9960000">
<ele>222.580002</ele>
<time>2020-10-07T18:19:54.586Z</time>
</trkpt>
<trkpt lat="31.8188400" lon="34.9958300">
<ele>222.550003</ele>
<time>2020-10-07T18:19:54.586Z</time>
</trkpt>
<trkpt lat="31.8188100" lon="34.9957000">
<ele>223.539993</ele>
<time>2020-10-07T18:19:54.586Z</time>
</trkpt>
<trkpt lat="31.8187200" lon="34.9955400">
<ele>224.690002</ele>
<time>2020-10-07T18:19:54.586Z</time>
</trkpt>
<trkpt lat="31.8187200" lon="34.9953700">
<ele>225.539993</ele>
<time>2020-10-07T18:19:54.586Z</time>
</trkpt>
<trkpt lat="31.8187500" lon="34.9952500">
<ele>226.100006</ele>
<time>2020-10-07T18:19:54.586Z</time>
</trkpt>
<trkpt lat="31.8188500" lon="34.9949800">
<ele>231.159988</ele>
<time>2020-10-07T18:19:54.586Z</time>
</trkpt>
<trkpt lat="31.8188500" lon="34.9948500">
<ele>234.770004</ele>
<time>2020-10-07T18:19:54.586Z</time>
</trkpt>
<trkpt lat="31.8188300" lon="34.9947700">
<ele>236.149994</ele>
<time>2020-10-07T18:19:54.586Z</time>
</trkpt>
<trkpt lat="31.8187800" lon="34.9947100">
<ele>235.710007</ele>
<time>2020-10-07T18:19:54.586Z</time>
</trkpt>
<trkpt lat="31.8186700" lon="34.9946000">
<ele>235.699997</ele>
<time>2020-10-07T18:19:54.586Z</time>
</trkpt>
<trkpt lat="31.8185300" lon="34.9945600">
<ele>234.739990</ele>
<time>2020-10-07T18:19:54.586Z</time>
</trkpt>
<trkpt lat="31.8183500" lon="34.9945500">
<ele>233.149994</ele>
<time>2020-10-07T18:19:54.586Z</time>
</trkpt>
<trkpt lat="31.8182800" lon="34.9945200">
<ele>233.649994</ele>
<time>2020-10-07T18:19:54.586Z</time>
</trkpt>
<trkpt lat="31.8181400" lon="34.9945000">
<ele>233.559998</ele>
<time>2020-10-07T18:19:54.586Z</time>
</trkpt>
<trkpt lat="31.8180700" lon="34.9944700">
<ele>233.720001</ele>
<time>2020-10-07T18:19:54.586Z</time>
</trkpt>
<trkpt lat="31.8177900" lon="34.9944100">
<ele>239.659988</ele>
<time>2020-10-07T18:19:54.586Z</time>
</trkpt>
<trkpt lat="31.8176200" lon="34.9943500">
<ele>242.710007</ele>
<time>2020-10-07T18:19:54.586Z</time>
</trkpt>
<trkpt lat="31.8174800" lon="34.9943300">
<ele>244.579987</ele>
<time>2020-10-07T18:19:54.586Z</time>
</trkpt>
<trkpt lat="31.8172900" lon="34.9942200">
<ele>250.489990</ele>
<time>2020-10-07T18:19:54.586Z</time>
</trkpt>
<trkpt lat="31.8172100" lon="34.9941400">
<ele>253.600006</ele>
<time>2020-10-07T18:19:54.586Z</time>
</trkpt>
<trkpt lat="31.8171000" lon="34.9938700">
<ele>258.640015</ele>
<time>2020-10-07T18:19:54.586Z</time>
</trkpt>
<trkpt lat="31.8170100" lon="34.9935900">
<ele>262.010010</ele>
<time>2020-10-07T18:19:54.586Z</time>
</trkpt>
<trkpt lat="31.8169200" lon="34.9931300">
<ele>265.399994</ele>
<time>2020-10-07T18:19:54.586Z</time>
</trkpt>
<trkpt lat="31.8168300" lon="34.9929500">
<ele>263.209991</ele>
<time>2020-10-07T18:19:54.586Z</time>
</trkpt>
<trkpt lat="31.8167400" lon="34.9928800">
<ele>261.160004</ele>
<time>2020-10-07T18:19:54.586Z</time>
</trkpt>
<trkpt lat="31.8166300" lon="34.9928800">
<ele>259.479980</ele>
<time>2020-10-07T18:19:54.586Z</time>
</trkpt>
<trkpt lat="31.8165600" lon="34.9928900">
<ele>258.369995</ele>
<time>2020-10-07T18:19:54.587Z</time>
</trkpt>
<trkpt lat="31.8164500" lon="34.9929200">
<ele>256.619995</ele>
<time>2020-10-07T18:19:54.587Z</time>
</trkpt>
<trkpt lat="31.8163300" lon="34.9929800">
<ele>255.300003</ele>
<time>2020-10-07T18:19:54.587Z</time>
</trkpt>
<trkpt lat="31.8162300" lon="34.9930800">
<ele>254.720001</ele>
<time>2020-10-07T18:19:54.587Z</time>
</trkpt>
<trkpt lat="31.8161300" lon="34.9931100">
<ele>253.760010</ele>
<time>2020-10-07T18:19:54.587Z</time>
</trkpt>
<trkpt lat="31.8160500" lon="34.9931100">
<ele>252.639999</ele>
<time>2020-10-07T18:19:54.587Z</time>
</trkpt>
<trkpt lat="31.8159900" lon="34.9930800">
<ele>252.000000</ele>
<time>2020-10-07T18:19:54.587Z</time>
</trkpt>
<trkpt lat="31.8159600" lon="34.9930300">
<ele>252.080002</ele>
<time>2020-10-07T18:19:54.587Z</time>
</trkpt>
<trkpt lat="31.8159600" lon="34.9930300">
<ele>252.080002</ele>
<time>2020-10-07T18:19:54.587Z</time>
</trkpt>
<trkpt lat="31.8159600" lon="34.9930300">
<ele>252.080002</ele>
<time>2020-10-07T18:19:54.587Z</time>
</trkpt>
<trkpt lat="31.8159400" lon="34.9930100">
<ele>252.080002</ele>
<time>2020-10-07T18:19:54.587Z</time>
</trkpt>
<trkpt lat="31.8159300" lon="34.9928900">
<ele>253.520004</ele>
<time>2020-10-07T18:19:54.587Z</time>
</trkpt>
<trkpt lat="31.8159700" lon="34.9927700">
<ele>254.709991</ele>
<time>2020-10-07T18:19:54.587Z</time>
</trkpt>
<trkpt lat="31.8160500" lon="34.9926300">
<ele>256.670013</ele>
<time>2020-10-07T18:19:54.587Z</time>
</trkpt>
<trkpt lat="31.8163800" lon="34.9921500">
<ele>264.119995</ele>
<time>2020-10-07T18:19:54.587Z</time>
</trkpt>
<trkpt lat="31.8165500" lon="34.9917200">
<ele>271.869995</ele>
<time>2020-10-07T18:19:54.587Z</time>
</trkpt>
<trkpt lat="31.8166100" lon="34.9912400">
<ele>284.350006</ele>
<time>2020-10-07T18:19:54.587Z</time>
</trkpt>
<trkpt lat="31.8166300" lon="34.9911400">
<ele>286.570007</ele>
<time>2020-10-07T18:19:54.587Z</time>
</trkpt>
<trkpt lat="31.8166800" lon="34.9910800">
<ele>288.000000</ele>
<time>2020-10-07T18:19:54.587Z</time>
</trkpt>
<trkpt lat="31.8167500" lon="34.9910400">
<ele>288.570007</ele>
<time>2020-10-07T18:19:54.587Z</time>
</trkpt>
<trkpt lat="31.8168200" lon="34.9910400">
<ele>289.270020</ele>
<time>2020-10-07T18:19:54.587Z</time>
</trkpt>
<trkpt lat="31.8169500" lon="34.9911200">
<ele>290.010010</ele>
<time>2020-10-07T18:19:54.587Z</time>
</trkpt>
<trkpt lat="31.8172500" lon="34.9914200">
<ele>293.010010</ele>
<time>2020-10-07T18:19:54.587Z</time>
</trkpt>
<trkpt lat="31.8176000" lon="34.9918500">
<ele>293.680023</ele>
<time>2020-10-07T18:19:54.587Z</time>
</trkpt>
<trkpt lat="31.8178200" lon="34.9920200">
<ele>291.149994</ele>
<time>2020-10-07T18:19:54.587Z</time>
</trkpt>
<trkpt lat="31.8178800" lon="34.9920400">
<ele>290.449982</ele>
<time>2020-10-07T18:19:54.587Z</time>
</trkpt>
<trkpt lat="31.8179600" lon="34.9920500">
<ele>289.910004</ele>
<time>2020-10-07T18:19:54.587Z</time>
</trkpt>
<trkpt lat="31.8180600" lon="34.9920200">
<ele>289.869995</ele>
<time>2020-10-07T18:19:54.587Z</time>
</trkpt>
<trkpt lat="31.8181200" lon="34.9919700">
<ele>289.959991</ele>
<time>2020-10-07T18:19:54.587Z</time>
</trkpt>
<trkpt lat="31.8182100" lon="34.9918100">
<ele>290.250000</ele>
<time>2020-10-07T18:19:54.587Z</time>
</trkpt>
<trkpt lat="31.8180500" lon="34.9916000">
<ele>294.020020</ele>
<time>2020-10-07T18:19:54.587Z</time>
</trkpt>
<trkpt lat="31.8179100" lon="34.9913200">
<ele>295.279999</ele>
<time>2020-10-07T18:19:54.587Z</time>
</trkpt>
<trkpt lat="31.8177000" lon="34.9907800">
<ele>298.209991</ele>
<time>2020-10-07T18:19:54.587Z</time>
</trkpt>
<trkpt lat="31.8174400" lon="34.9902800">
<ele>302.339996</ele>
<time>2020-10-07T18:19:54.587Z</time>
</trkpt>
<trkpt lat="31.8173700" lon="34.9900100">
<ele>299.220001</ele>
<time>2020-10-07T18:19:54.587Z</time>
</trkpt>
<trkpt lat="31.8172100" lon="34.9900500">
<ele>297.210022</ele>
<time>2020-10-07T18:19:54.587Z</time>
</trkpt>
<trkpt lat="31.8170400" lon="34.9900900">
<ele>292.739990</ele>
<time>2020-10-07T18:19:54.587Z</time>
</trkpt>
<trkpt lat="31.8166800" lon="34.9901800">
<ele>285.679993</ele>
<time>2020-10-07T18:19:54.587Z</time>
</trkpt>
<trkpt lat="31.8159800" lon="34.9903100">
<ele>296.589996</ele>
<time>2020-10-07T18:19:54.587Z</time>
</trkpt>
<trkpt lat="31.8157500" lon="34.9903700">
<ele>298.570007</ele>
<time>2020-10-07T18:19:54.587Z</time>
</trkpt>
<trkpt lat="31.8155400" lon="34.9903200">
<ele>298.850006</ele>
<time>2020-10-07T18:19:54.587Z</time>
</trkpt>
<trkpt lat="31.8152100" lon="34.9902100">
<ele>305.049988</ele>
<time>2020-10-07T18:19:54.587Z</time>
</trkpt>
<trkpt lat="31.8148500" lon="34.9900000">
<ele>312.459991</ele>
<time>2020-10-07T18:19:54.587Z</time>
</trkpt>
<trkpt lat="31.8142200" lon="34.9896500">
<ele>319.030029</ele>
<time>2020-10-07T18:19:54.587Z</time>
</trkpt>
<trkpt lat="31.8134300" lon="34.9893500">
<ele>328.559998</ele>
<time>2020-10-07T18:19:54.587Z</time>
</trkpt>
<trkpt lat="31.8126000" lon="34.9892000">
<ele>316.029999</ele>
<time>2020-10-07T18:19:54.587Z</time>
</trkpt>
<trkpt lat="31.8121700" lon="34.9891300">
<ele>307.600006</ele>
<time>2020-10-07T18:19:54.587Z</time>
</trkpt>
<trkpt lat="31.8117500" lon="34.9892600">
<ele>309.240021</ele>
<time>2020-10-07T18:19:54.587Z</time>
</trkpt>
<trkpt lat="31.8116000" lon="34.9893200">
<ele>309.549988</ele>
<time>2020-10-07T18:19:54.587Z</time>
</trkpt>
<trkpt lat="31.8112900" lon="34.9894900">
<ele>310.100006</ele>
<time>2020-10-07T18:19:54.587Z</time>
</trkpt>
<trkpt lat="31.8111300" lon="34.9895900">
<ele>309.809998</ele>
<time>2020-10-07T18:19:54.587Z</time>
</trkpt>
<trkpt lat="31.8107900" lon="34.9895400">
<ele>305.380005</ele>
<time>2020-10-07T18:19:54.587Z</time>
</trkpt>
<trkpt lat="31.8106100" lon="34.9895400">
<ele>306.940002</ele>
<time>2020-10-07T18:19:54.587Z</time>
</trkpt>
<trkpt lat="31.8104200" lon="34.9895800">
<ele>310.649994</ele>
<time>2020-10-07T18:19:54.587Z</time>
</trkpt>
<trkpt lat="31.8102300" lon="34.9896700">
<ele>313.729980</ele>
<time>2020-10-07T18:19:54.587Z</time>
</trkpt>
<trkpt lat="31.8094700" lon="34.9902500">
<ele>309.630005</ele>
<time>2020-10-07T18:19:54.587Z</time>
</trkpt>
<trkpt lat="31.8080800" lon="34.9914200">
<ele>311.570007</ele>
<time>2020-10-07T18:19:54.587Z</time>
</trkpt>
<trkpt lat="31.8078800" lon="34.9915300">
<ele>313.220001</ele>
<time>2020-10-07T18:19:54.587Z</time>
</trkpt>
<trkpt lat="31.8077000" lon="34.9914600">
<ele>314.820007</ele>
<time>2020-10-07T18:19:54.587Z</time>
</trkpt>
<trkpt lat="31.8075500" lon="34.9912900">
<ele>319.729980</ele>
<time>2020-10-07T18:19:54.587Z</time>
</trkpt>
<trkpt lat="31.8075300" lon="34.9912500">
<ele>320.369995</ele>
<time>2020-10-07T18:19:54.587Z</time>
</trkpt>
<trkpt lat="31.8075300" lon="34.9912500">
<ele>320.369995</ele>
<time>2020-10-07T18:19:54.587Z</time>
</trkpt>
<trkpt lat="31.8075300" lon="34.9912500">
<ele>320.369995</ele>
<time>2020-10-07T18:19:54.587Z</time>
</trkpt>
<trkpt lat="31.8073300" lon="34.9909200">
<ele>325.130005</ele>
<time>2020-10-07T18:19:54.587Z</time>
</trkpt>
<trkpt lat="31.8071900" lon="34.9907200">
<ele>326.529999</ele>
<time>2020-10-07T18:19:54.587Z</time>
</trkpt>
<trkpt lat="31.8069400" lon="34.9905300">
<ele>327.890015</ele>
<time>2020-10-07T18:19:54.587Z</time>
</trkpt>
<trkpt lat="31.8067800" lon="34.9904600">
<ele>326.659973</ele>
<time>2020-10-07T18:19:54.588Z</time>
</trkpt>
<trkpt lat="31.8066700" lon="34.9904500">
<ele>325.880005</ele>
<time>2020-10-07T18:19:54.588Z</time>
</trkpt>
<trkpt lat="31.8063400" lon="34.9904700">
<ele>320.079987</ele>
<time>2020-10-07T18:19:54.588Z</time>
</trkpt>
<trkpt lat="31.8060800" lon="34.9905000">
<ele>321.290009</ele>
<time>2020-10-07T18:19:54.588Z</time>
</trkpt>
<trkpt lat="31.8055600" lon="34.9906800">
<ele>317.549988</ele>
<time>2020-10-07T18:19:54.588Z</time>
</trkpt>
<trkpt lat="31.8043700" lon="34.9914900">
<ele>326.890015</ele>
<time>2020-10-07T18:19:54.588Z</time>
</trkpt>
<trkpt lat="31.8041800" lon="34.9915600">
<ele>329.970001</ele>
<time>2020-10-07T18:19:54.588Z</time>
</trkpt>
<trkpt lat="31.8039100" lon="34.9915300">
<ele>335.070007</ele>
<time>2020-10-07T18:19:54.588Z</time>
</trkpt>
<trkpt lat="31.8037700" lon="34.9915600">
<ele>336.279999</ele>
<time>2020-10-07T18:19:54.588Z</time>
</trkpt>
<trkpt lat="31.8037100" lon="34.9916300">
<ele>337.250000</ele>
<time>2020-10-07T18:19:54.588Z</time>
</trkpt>
<trkpt lat="31.8035900" lon="34.9918200">
<ele>340.010010</ele>
<time>2020-10-07T18:19:54.588Z</time>
</trkpt>
<trkpt lat="31.8035400" lon="34.9919200">
<ele>340.900024</ele>
<time>2020-10-07T18:19:54.588Z</time>
</trkpt>
<trkpt lat="31.8034300" lon="34.9921500">
<ele>342.779999</ele>
<time>2020-10-07T18:19:54.588Z</time>
</trkpt>
<trkpt lat="31.8033200" lon="34.9923600">
<ele>343.890015</ele>
<time>2020-10-07T18:19:54.588Z</time>
</trkpt>
<trkpt lat="31.8032000" lon="34.9925700">
<ele>344.649994</ele>
<time>2020-10-07T18:19:54.588Z</time>
</trkpt>
<trkpt lat="31.8031100" lon="34.9927000">
<ele>342.020020</ele>
<time>2020-10-07T18:19:54.588Z</time>
</trkpt>
<trkpt lat="31.8029500" lon="34.9928700">
<ele>336.979980</ele>
<time>2020-10-07T18:19:54.588Z</time>
</trkpt>
<trkpt lat="31.8026900" lon="34.9930500">
<ele>332.380005</ele>
<time>2020-10-07T18:19:54.588Z</time>
</trkpt>
<trkpt lat="31.8022000" lon="34.9932800">
<ele>334.650024</ele>
<time>2020-10-07T18:19:54.588Z</time>
</trkpt>
<trkpt lat="31.8021500" lon="34.9932900">
<ele>335.269989</ele>
<time>2020-10-07T18:19:54.588Z</time>
</trkpt>
<trkpt lat="31.8020000" lon="34.9933700">
<ele>338.139984</ele>
<time>2020-10-07T18:19:54.588Z</time>
</trkpt>
<trkpt lat="31.8019100" lon="34.9933900">
<ele>339.470001</ele>
<time>2020-10-07T18:19:54.588Z</time>
</trkpt>
<trkpt lat="31.8017900" lon="34.9934700">
<ele>341.250031</ele>
<time>2020-10-07T18:19:54.588Z</time>
</trkpt>
<trkpt lat="31.8016600" lon="34.9935800">
<ele>341.869995</ele>
<time>2020-10-07T18:19:54.588Z</time>
</trkpt>
<trkpt lat="31.8015700" lon="34.9937100">
<ele>342.940002</ele>
<time>2020-10-07T18:19:54.588Z</time>
</trkpt>
<trkpt lat="31.8014300" lon="34.9939300">
<ele>344.249969</ele>
<time>2020-10-07T18:19:54.588Z</time>
</trkpt>
<trkpt lat="31.8014200" lon="34.9939500">
<ele>344.279999</ele>
<time>2020-10-07T18:19:54.588Z</time>
</trkpt>
<trkpt lat="31.8014200" lon="34.9939500">
<ele>344.279999</ele>
<time>2020-10-07T18:19:54.588Z</time>
</trkpt>
<trkpt lat="31.8014200" lon="34.9939500">
<ele>344.279999</ele>
<time>2020-10-07T18:19:54.588Z</time>
</trkpt>
<trkpt lat="31.8012400" lon="34.9942900">
<ele>342.350006</ele>
<time>2020-10-07T18:19:54.588Z</time>
</trkpt>
<trkpt lat="31.8011900" lon="34.9943800">
<ele>341.750000</ele>
<time>2020-10-07T18:19:54.588Z</time>
</trkpt>
<trkpt lat="31.8011400" lon="34.9944300">
<ele>341.269989</ele>
<time>2020-10-07T18:19:54.588Z</time>
</trkpt>
<trkpt lat="31.8011000" lon="34.9944800">
<ele>341.059998</ele>
<time>2020-10-07T18:19:54.588Z</time>
</trkpt>
<trkpt lat="31.8009800" lon="34.9945800">
<ele>339.849976</ele>
<time>2020-10-07T18:19:54.588Z</time>
</trkpt>
<trkpt lat="31.8008200" lon="34.9946600">
<ele>338.230011</ele>
<time>2020-10-07T18:19:54.588Z</time>
</trkpt>
<trkpt lat="31.8006900" lon="34.9946800">
<ele>337.510010</ele>
<time>2020-10-07T18:19:54.588Z</time>
</trkpt>
<trkpt lat="31.8005700" lon="34.9946800">
<ele>336.649994</ele>
<time>2020-10-07T18:19:54.588Z</time>
</trkpt>
<trkpt lat="31.8002500" lon="34.9946200">
<ele>338.580017</ele>
<time>2020-10-07T18:19:54.588Z</time>
</trkpt>
<trkpt lat="31.8001300" lon="34.9946200">
<ele>338.380005</ele>
<time>2020-10-07T18:19:54.588Z</time>
</trkpt>
<trkpt lat="31.7999900" lon="34.9946400">
<ele>338.469971</ele>
<time>2020-10-07T18:19:54.588Z</time>
</trkpt>
<trkpt lat="31.7997600" lon="34.9947700">
<ele>339.679993</ele>
<time>2020-10-07T18:19:54.588Z</time>
</trkpt>
<trkpt lat="31.7995800" lon="34.9949700">
<ele>342.989990</ele>
<time>2020-10-07T18:19:54.588Z</time>
</trkpt>
<trkpt lat="31.7993200" lon="34.9953800">
<ele>345.759979</ele>
<time>2020-10-07T18:19:54.588Z</time>
</trkpt>
<trkpt lat="31.7991500" lon="34.9956000">
<ele>347.049988</ele>
<time>2020-10-07T18:19:54.588Z</time>
</trkpt>
<trkpt lat="31.7988000" lon="34.9959900">
<ele>347.150024</ele>
<time>2020-10-07T18:19:54.588Z</time>
</trkpt>
<trkpt lat="31.7984900" lon="34.9962800">
<ele>347.920013</ele>
<time>2020-10-07T18:19:54.588Z</time>
</trkpt>
<trkpt lat="31.7982500" lon="34.9965900">
<ele>350.490021</ele>
<time>2020-10-07T18:19:54.588Z</time>
</trkpt>
<trkpt lat="31.7980900" lon="34.9967800">
<ele>350.610016</ele>
<time>2020-10-07T18:19:54.588Z</time>
</trkpt>
<trkpt lat="31.7979800" lon="34.9969100">
<ele>350.769989</ele>
<time>2020-10-07T18:19:54.588Z</time>
</trkpt>
<trkpt lat="31.7977400" lon="34.9971300">
<ele>353.799988</ele>
<time>2020-10-07T18:19:54.588Z</time>
</trkpt>
<trkpt lat="31.7975900" lon="34.9972400">
<ele>352.580017</ele>
<time>2020-10-07T18:19:54.588Z</time>
</trkpt>
<trkpt lat="31.7974600" lon="34.9973100">
<ele>351.050018</ele>
<time>2020-10-07T18:19:54.588Z</time>
</trkpt>
<trkpt lat="31.7973700" lon="34.9973400">
<ele>351.199982</ele>
<time>2020-10-07T18:19:54.588Z</time>
</trkpt>
<trkpt lat="31.7970800" lon="34.9973900">
<ele>354.369995</ele>
<time>2020-10-07T18:19:54.588Z</time>
</trkpt>
<trkpt lat="31.7969400" lon="34.9974300">
<ele>357.080017</ele>
<time>2020-10-07T18:19:54.588Z</time>
</trkpt>
<trkpt lat="31.7967600" lon="34.9974600">
<ele>360.320007</ele>
<time>2020-10-07T18:19:54.588Z</time>
</trkpt>
<trkpt lat="31.7965100" lon="34.9974500">
<ele>365.489990</ele>
<time>2020-10-07T18:19:54.588Z</time>
</trkpt>
<trkpt lat="31.7962700" lon="34.9973600">
<ele>370.640015</ele>
<time>2020-10-07T18:19:54.588Z</time>
</trkpt>
<trkpt lat="31.7958500" lon="34.9971300">
<ele>377.819977</ele>
<time>2020-10-07T18:19:54.588Z</time>
</trkpt>
<trkpt lat="31.7956000" lon="34.9969600">
<ele>381.610016</ele>
<time>2020-10-07T18:19:54.588Z</time>
</trkpt>
<trkpt lat="31.7955200" lon="34.9968900">
<ele>381.989990</ele>
<time>2020-10-07T18:19:54.588Z</time>
</trkpt>
<trkpt lat="31.7951600" lon="34.9966800">
<ele>380.739990</ele>
<time>2020-10-07T18:19:54.588Z</time>
</trkpt>
<trkpt lat="31.7949700" lon="34.9966000">
<ele>378.050018</ele>
<time>2020-10-07T18:19:54.588Z</time>
</trkpt>
<trkpt lat="31.7949000" lon="34.9965900">
<ele>377.660004</ele>
<time>2020-10-07T18:19:54.588Z</time>
</trkpt>
<trkpt lat="31.7948100" lon="34.9966000">
<ele>377.040009</ele>
<time>2020-10-07T18:19:54.589Z</time>
</trkpt>
<trkpt lat="31.7945900" lon="34.9967000">
<ele>374.869995</ele>
<time>2020-10-07T18:19:54.589Z</time>
</trkpt>
<trkpt lat="31.7942900" lon="34.9968900">
<ele>375.190002</ele>
<time>2020-10-07T18:19:54.589Z</time>
</trkpt>
<trkpt lat="31.7940200" lon="34.9970300">
<ele>376.470001</ele>
<time>2020-10-07T18:19:54.589Z</time>
</trkpt>
<trkpt lat="31.7937300" lon="34.9971900">
<ele>375.350006</ele>
<time>2020-10-07T18:19:54.589Z</time>
</trkpt>
<trkpt lat="31.7930900" lon="34.9974500">
<ele>371.929993</ele>
<time>2020-10-07T18:19:54.589Z</time>
</trkpt>
<trkpt lat="31.7928400" lon="34.9976100">
<ele>367.899994</ele>
<time>2020-10-07T18:19:54.589Z</time>
</trkpt>
<trkpt lat="31.7925700" lon="34.9977300">
<ele>367.239990</ele>
<time>2020-10-07T18:19:54.589Z</time>
</trkpt>
<trkpt lat="31.7924400" lon="34.9977500">
<ele>367.190002</ele>
<time>2020-10-07T18:19:54.589Z</time>
</trkpt>
<trkpt lat="31.7921700" lon="34.9977500">
<ele>368.430023</ele>
<time>2020-10-07T18:19:54.589Z</time>
</trkpt>
<trkpt lat="31.7919600" lon="34.9976700">
<ele>366.869995</ele>
<time>2020-10-07T18:19:54.589Z</time>
</trkpt>
<trkpt lat="31.7918100" lon="34.9977700">
<ele>367.899994</ele>
<time>2020-10-07T18:19:54.589Z</time>
</trkpt>
<trkpt lat="31.7916300" lon="34.9979500">
<ele>372.600006</ele>
<time>2020-10-07T18:19:54.589Z</time>
</trkpt>
<trkpt lat="31.7915400" lon="34.9980200">
<ele>375.020020</ele>
<time>2020-10-07T18:19:54.589Z</time>
</trkpt>
<trkpt lat="31.7914500" lon="34.9980500">
<ele>376.420013</ele>
<time>2020-10-07T18:19:54.589Z</time>
</trkpt>
<trkpt lat="31.7913600" lon="34.9980700">
<ele>377.100006</ele>
<time>2020-10-07T18:19:54.589Z</time>
</trkpt>
<trkpt lat="31.7910500" lon="34.9980100">
<ele>374.229980</ele>
<time>2020-10-07T18:19:54.589Z</time>
</trkpt>
<trkpt lat="31.7909600" lon="34.9980400">
<ele>374.320007</ele>
<time>2020-10-07T18:19:54.589Z</time>
</trkpt>
<trkpt lat="31.7908900" lon="34.9981000">
<ele>375.000000</ele>
<time>2020-10-07T18:19:54.589Z</time>
</trkpt>
<trkpt lat="31.7908600" lon="34.9981500">
<ele>375.799988</ele>
<time>2020-10-07T18:19:54.589Z</time>
</trkpt>
<trkpt lat="31.7908600" lon="34.9982600">
<ele>377.779999</ele>
<time>2020-10-07T18:19:54.589Z</time>
</trkpt>
<trkpt lat="31.7908600" lon="34.9982600">
<ele>377.779999</ele>
<time>2020-10-07T18:19:54.589Z</time>
</trkpt>
<trkpt lat="31.7908600" lon="34.9982600">
<ele>377.779999</ele>
<time>2020-10-07T18:19:54.589Z</time>
</trkpt>
<trkpt lat="31.7908600" lon="34.9983200">
<ele>378.859985</ele>
<time>2020-10-07T18:19:54.589Z</time>
</trkpt>
<trkpt lat="31.7909600" lon="34.9985200">
<ele>382.819977</ele>
<time>2020-10-07T18:19:54.589Z</time>
</trkpt>
<trkpt lat="31.7910500" lon="34.9986300">
<ele>384.959991</ele>
<time>2020-10-07T18:19:54.589Z</time>
</trkpt>
<trkpt lat="31.7912100" lon="34.9987600">
<ele>387.310028</ele>
<time>2020-10-07T18:19:54.589Z</time>
</trkpt>
<trkpt lat="31.7914400" lon="34.9990000">
<ele>386.800018</ele>
<time>2020-10-07T18:19:54.589Z</time>
</trkpt>
<trkpt lat="31.7917600" lon="34.9992600">
<ele>377.309998</ele>
<time>2020-10-07T18:19:54.589Z</time>
</trkpt>
<trkpt lat="31.7919900" lon="34.9995000">
<ele>374.070007</ele>
<time>2020-10-07T18:19:54.589Z</time>
</trkpt>
<trkpt lat="31.7921000" lon="34.9995700">
<ele>374.149994</ele>
<time>2020-10-07T18:19:54.589Z</time>
</trkpt>
<trkpt lat="31.7921900" lon="34.9996000">
<ele>374.170013</ele>
<time>2020-10-07T18:19:54.589Z</time>
</trkpt>
<trkpt lat="31.7922800" lon="34.9996600">
<ele>374.320007</ele>
<time>2020-10-07T18:19:54.589Z</time>
</trkpt>
<trkpt lat="31.7923300" lon="34.9997500">
<ele>374.190002</ele>
<time>2020-10-07T18:19:54.589Z</time>
</trkpt>
<trkpt lat="31.7923800" lon="34.9999900">
<ele>373.319977</ele>
<time>2020-10-07T18:19:54.589Z</time>
</trkpt>
<trkpt lat="31.7924300" lon="35.0001300">
<ele>371.470001</ele>
<time>2020-10-07T18:19:54.589Z</time>
</trkpt>
<trkpt lat="31.7924800" lon="35.0002200">
<ele>370.459991</ele>
<time>2020-10-07T18:19:54.589Z</time>
</trkpt>
<trkpt lat="31.7925600" lon="35.0003000">
<ele>369.149994</ele>
<time>2020-10-07T18:19:54.589Z</time>
</trkpt>
<trkpt lat="31.7926800" lon="35.0003800">
<ele>367.649994</ele>
<time>2020-10-07T18:19:54.589Z</time>
</trkpt>
<trkpt lat="31.7930700" lon="35.0002100">
<ele>362.369995</ele>
<time>2020-10-07T18:19:54.589Z</time>
</trkpt>
<trkpt lat="31.7938900" lon="35.0002200">
<ele>353.610016</ele>
<time>2020-10-07T18:19:54.589Z</time>
</trkpt>
<trkpt lat="31.7941200" lon="35.0003100">
<ele>350.639984</ele>
<time>2020-10-07T18:19:54.589Z</time>
</trkpt>
<trkpt lat="31.7943300" lon="35.0002500">
<ele>347.960022</ele>
<time>2020-10-07T18:19:54.589Z</time>
</trkpt>
<trkpt lat="31.7945600" lon="35.0001400">
<ele>344.179993</ele>
<time>2020-10-07T18:19:54.589Z</time>
</trkpt>
<trkpt lat="31.7951100" lon="34.9997600">
<ele>343.520020</ele>
<time>2020-10-07T18:19:54.589Z</time>
</trkpt>
<trkpt lat="31.7953000" lon="34.9996600">
<ele>342.929993</ele>
<time>2020-10-07T18:19:54.589Z</time>
</trkpt>
<trkpt lat="31.7954700" lon="34.9995400">
<ele>341.179993</ele>
<time>2020-10-07T18:19:54.589Z</time>
</trkpt>
<trkpt lat="31.7954700" lon="34.9995400">
<ele>341.179993</ele>
<time>2020-10-07T18:19:54.589Z</time>
</trkpt>
<trkpt lat="31.7954700" lon="34.9995400">
<ele>341.179993</ele>
<time>2020-10-07T18:19:54.589Z</time>
</trkpt>
<trkpt lat="31.7955700" lon="34.9994700">
<ele>339.360016</ele>
<time>2020-10-07T18:19:54.589Z</time>
</trkpt>
<trkpt lat="31.7957100" lon="34.9994000">
<ele>339.110016</ele>
<time>2020-10-07T18:19:54.589Z</time>
</trkpt>
<trkpt lat="31.7961100" lon="34.9993200">
<ele>343.869995</ele>
<time>2020-10-07T18:19:54.589Z</time>
</trkpt>
<trkpt lat="31.7964700" lon="34.9991600">
<ele>348.850006</ele>
<time>2020-10-07T18:19:54.589Z</time>
</trkpt>
<trkpt lat="31.7965600" lon="34.9991500">
<ele>347.559998</ele>
<time>2020-10-07T18:19:54.589Z</time>
</trkpt>
<trkpt lat="31.7968300" lon="34.9991600">
<ele>343.090027</ele>
<time>2020-10-07T18:19:54.589Z</time>
</trkpt>
<trkpt lat="31.7969600" lon="34.9991200">
<ele>341.489990</ele>
<time>2020-10-07T18:19:54.589Z</time>
</trkpt>
<trkpt lat="31.7977100" lon="34.9988200">
<ele>331.889984</ele>
<time>2020-10-07T18:19:54.589Z</time>
</trkpt>
<trkpt lat="31.7979700" lon="34.9987400">
<ele>322.769989</ele>
<time>2020-10-07T18:19:54.589Z</time>
</trkpt>
<trkpt lat="31.7985600" lon="34.9984400">
<ele>313.080017</ele>
<time>2020-10-07T18:19:54.589Z</time>
</trkpt>
<trkpt lat="31.7989000" lon="34.9983100">
<ele>309.769989</ele>
<time>2020-10-07T18:19:54.589Z</time>
</trkpt>
<trkpt lat="31.7996700" lon="34.9981600">
<ele>321.380005</ele>
<time>2020-10-07T18:19:54.589Z</time>
</trkpt>
<trkpt lat="31.8002000" lon="34.9980300">
<ele>321.130005</ele>
<time>2020-10-07T18:19:54.589Z</time>
</trkpt>
<trkpt lat="31.8004100" lon="34.9979500">
<ele>320.390015</ele>
<time>2020-10-07T18:19:54.590Z</time>
</trkpt>
<trkpt lat="31.8006500" lon="34.9978200">
<ele>317.979980</ele>
<time>2020-10-07T18:19:54.590Z</time>
</trkpt>
<trkpt lat="31.8006500" lon="34.9978200">
<ele>317.979980</ele>
<time>2020-10-07T18:19:54.590Z</time>
</trkpt>
<trkpt lat="31.8006500" lon="34.9978200">
<ele>317.979980</ele>
<time>2020-10-07T18:19:54.590Z</time>
</trkpt>
<trkpt lat="31.8012600" lon="34.9974700">
<ele>312.449982</ele>
<time>2020-10-07T18:19:54.590Z</time>
</trkpt>
<trkpt lat="31.8013900" lon="34.9973900">
<ele>313.019989</ele>
<time>2020-10-07T18:19:54.590Z</time>
</trkpt>
<trkpt lat="31.8016100" lon="34.9971700">
<ele>305.149994</ele>
<time>2020-10-07T18:19:54.590Z</time>
</trkpt>
<trkpt lat="31.8017900" lon="34.9970500">
<ele>302.549988</ele>
<time>2020-10-07T18:19:54.590Z</time>
</trkpt>
<trkpt lat="31.8020900" lon="34.9968500">
<ele>299.200012</ele>
<time>2020-10-07T18:19:54.590Z</time>
</trkpt>
<trkpt lat="31.8022400" lon="34.9967700">
<ele>300.109985</ele>
<time>2020-10-07T18:19:54.590Z</time>
</trkpt>
<trkpt lat="31.8024900" lon="34.9966600">
<ele>298.250000</ele>
<time>2020-10-07T18:19:54.590Z</time>
</trkpt>
<trkpt lat="31.8026900" lon="34.9966000">
<ele>295.860016</ele>
<time>2020-10-07T18:19:54.590Z</time>
</trkpt>
<trkpt lat="31.8028500" lon="34.9965900">
<ele>293.690002</ele>
<time>2020-10-07T18:19:54.590Z</time>
</trkpt>
<trkpt lat="31.8031700" lon="34.9966400">
<ele>290.179993</ele>
<time>2020-10-07T18:19:54.590Z</time>
</trkpt>
<trkpt lat="31.8032500" lon="34.9966300">
<ele>288.880005</ele>
<time>2020-10-07T18:19:54.590Z</time>
</trkpt>
<trkpt lat="31.8033400" lon="34.9966200">
<ele>287.489990</ele>
<time>2020-10-07T18:19:54.590Z</time>
</trkpt>
<trkpt lat="31.8036700" lon="34.9965300">
<ele>285.429993</ele>
<time>2020-10-07T18:19:54.590Z</time>
</trkpt>
<trkpt lat="31.8039800" lon="34.9964000">
<ele>286.380005</ele>
<time>2020-10-07T18:19:54.590Z</time>
</trkpt>
<trkpt lat="31.8041300" lon="34.9963800">
<ele>290.299988</ele>
<time>2020-10-07T18:19:54.590Z</time>
</trkpt>
<trkpt lat="31.8045800" lon="34.9963800">
<ele>293.700012</ele>
<time>2020-10-07T18:19:54.590Z</time>
</trkpt>
<trkpt lat="31.8047400" lon="34.9963600">
<ele>291.390015</ele>
<time>2020-10-07T18:19:54.590Z</time>
</trkpt>
<trkpt lat="31.8049700" lon="34.9963000">
<ele>290.529999</ele>
<time>2020-10-07T18:19:54.590Z</time>
</trkpt>
<trkpt lat="31.8051600" lon="34.9962200">
<ele>289.350006</ele>
<time>2020-10-07T18:19:54.590Z</time>
</trkpt>
<trkpt lat="31.8052800" lon="34.9961900">
<ele>288.130005</ele>
<time>2020-10-07T18:19:54.590Z</time>
</trkpt>
<trkpt lat="31.8055000" lon="34.9962100">
<ele>285.820007</ele>
<time>2020-10-07T18:19:54.590Z</time>
</trkpt>
<trkpt lat="31.8058100" lon="34.9962100">
<ele>284.170013</ele>
<time>2020-10-07T18:19:54.590Z</time>
</trkpt>
<trkpt lat="31.8059200" lon="34.9961800">
<ele>284.049988</ele>
<time>2020-10-07T18:19:54.590Z</time>
</trkpt>
<trkpt lat="31.8059800" lon="34.9961600">
<ele>283.899994</ele>
<time>2020-10-07T18:19:54.590Z</time>
</trkpt>
<trkpt lat="31.8060700" lon="34.9961200">
<ele>283.209991</ele>
<time>2020-10-07T18:19:54.590Z</time>
</trkpt>
<trkpt lat="31.8065700" lon="34.9958000">
<ele>276.190002</ele>
<time>2020-10-07T18:19:54.590Z</time>
</trkpt>
<trkpt lat="31.8072100" lon="34.9952900">
<ele>272.089996</ele>
<time>2020-10-07T18:19:54.590Z</time>
</trkpt>
<trkpt lat="31.8074700" lon="34.9948900">
<ele>269.649994</ele>
<time>2020-10-07T18:19:54.590Z</time>
</trkpt>
<trkpt lat="31.8076600" lon="34.9946400">
<ele>269.279999</ele>
<time>2020-10-07T18:19:54.590Z</time>
</trkpt>
<trkpt lat="31.8078300" lon="34.9945100">
<ele>270.649994</ele>
<time>2020-10-07T18:19:54.590Z</time>
</trkpt>
<trkpt lat="31.8078300" lon="34.9945100">
<ele>270.649994</ele>
<time>2020-10-07T18:19:54.590Z</time>
</trkpt>
<trkpt lat="31.8078300" lon="34.9945100">
<ele>270.649994</ele>
<time>2020-10-07T18:19:54.590Z</time>
</trkpt>
<trkpt lat="31.8078900" lon="34.9944700">
<ele>272.250000</ele>
<time>2020-10-07T18:19:54.590Z</time>
</trkpt>
<trkpt lat="31.8079200" lon="34.9944000">
<ele>273.410004</ele>
<time>2020-10-07T18:19:54.590Z</time>
</trkpt>
<trkpt lat="31.8079300" lon="34.9943100">
<ele>274.260010</ele>
<time>2020-10-07T18:19:54.590Z</time>
</trkpt>
<trkpt lat="31.8081500" lon="34.9944800">
<ele>277.640015</ele>
<time>2020-10-07T18:19:54.590Z</time>
</trkpt>
<trkpt lat="31.8087700" lon="34.9949700">
<ele>282.730011</ele>
<time>2020-10-07T18:19:54.590Z</time>
</trkpt>
<trkpt lat="31.8089100" lon="34.9950200">
<ele>280.989990</ele>
<time>2020-10-07T18:19:54.590Z</time>
</trkpt>
<trkpt lat="31.8089800" lon="34.9950300">
<ele>280.380005</ele>
<time>2020-10-07T18:19:54.590Z</time>
</trkpt>
<trkpt lat="31.8098800" lon="34.9950400">
<ele>257.670013</ele>
<time>2020-10-07T18:19:54.590Z</time>
</trkpt>
<trkpt lat="31.8102300" lon="34.9950200">
<ele>256.200012</ele>
<time>2020-10-07T18:19:54.590Z</time>
</trkpt>
<trkpt lat="31.8104200" lon="34.9949800">
<ele>257.500000</ele>
<time>2020-10-07T18:19:54.590Z</time>
</trkpt>
<trkpt lat="31.8105100" lon="34.9949200">
<ele>258.269989</ele>
<time>2020-10-07T18:19:54.590Z</time>
</trkpt>
<trkpt lat="31.8105600" lon="34.9948000">
<ele>258.259979</ele>
<time>2020-10-07T18:19:54.590Z</time>
</trkpt>
<trkpt lat="31.8105900" lon="34.9949600">
<ele>258.729980</ele>
<time>2020-10-07T18:19:54.590Z</time>
</trkpt>
<trkpt lat="31.8106600" lon="34.9950500">
<ele>259.279999</ele>
<time>2020-10-07T18:19:54.590Z</time>
</trkpt>
<trkpt lat="31.8107400" lon="34.9950900">
<ele>259.419983</ele>
<time>2020-10-07T18:19:54.590Z</time>
</trkpt>
<trkpt lat="31.8109600" lon="34.9951600">
<ele>260.779999</ele>
<time>2020-10-07T18:19:54.590Z</time>
</trkpt>
<trkpt lat="31.8110700" lon="34.9951200">
<ele>260.769989</ele>
<time>2020-10-07T18:19:54.590Z</time>
</trkpt>
<trkpt lat="31.8112800" lon="34.9950800">
<ele>259.669983</ele>
<time>2020-10-07T18:19:54.590Z</time>
</trkpt>
<trkpt lat="31.8115300" lon="34.9950600">
<ele>258.020020</ele>
<time>2020-10-07T18:19:54.590Z</time>
</trkpt>
<trkpt lat="31.8118500" lon="34.9949900">
<ele>252.430008</ele>
<time>2020-10-07T18:19:54.590Z</time>
</trkpt>
<trkpt lat="31.8121100" lon="34.9949700">
<ele>250.679993</ele>
<time>2020-10-07T18:19:54.590Z</time>
</trkpt>
<trkpt lat="31.8124200" lon="34.9947200">
<ele>249.609985</ele>
<time>2020-10-07T18:19:54.590Z</time>
</trkpt>
<trkpt lat="31.8125500" lon="34.9946400">
<ele>250.729996</ele>
<time>2020-10-07T18:19:54.590Z</time>
</trkpt>
<trkpt lat="31.8128700" lon="34.9946400">
<ele>249.860001</ele>
<time>2020-10-07T18:19:54.590Z</time>
</trkpt>
<trkpt lat="31.8131400" lon="34.9947300">
<ele>244.419998</ele>
<time>2020-10-07T18:19:54.590Z</time>
</trkpt>
<trkpt lat="31.8132700" lon="34.9948000">
<ele>245.520004</ele>
<time>2020-10-07T18:19:54.590Z</time>
</trkpt>
<trkpt lat="31.8135500" lon="34.9949000">
<ele>241.940002</ele>
<time>2020-10-07T18:19:54.590Z</time>
</trkpt>
<trkpt lat="31.8136600" lon="34.9948900">
<ele>240.550003</ele>
<time>2020-10-07T18:19:54.590Z</time>
</trkpt>
<trkpt lat="31.8137200" lon="34.9948600">
<ele>240.419998</ele>
<time>2020-10-07T18:19:54.590Z</time>
</trkpt>
<trkpt lat="31.8137900" lon="34.9948500">
<ele>240.089996</ele>
<time>2020-10-07T18:19:54.590Z</time>
</trkpt>
<trkpt lat="31.8140200" lon="34.9947300">
<ele>240.440002</ele>
<time>2020-10-07T18:19:54.591Z</time>
</trkpt>
<trkpt lat="31.8141600" lon="34.9947200">
<ele>240.970001</ele>
<time>2020-10-07T18:19:54.591Z</time>
</trkpt>
<trkpt lat="31.8142700" lon="34.9946900">
<ele>239.569992</ele>
<time>2020-10-07T18:19:54.591Z</time>
</trkpt>
<trkpt lat="31.8145600" lon="34.9946900">
<ele>237.080002</ele>
<time>2020-10-07T18:19:54.591Z</time>
</trkpt>
<trkpt lat="31.8146200" lon="34.9947200">
<ele>236.410004</ele>
<time>2020-10-07T18:19:54.591Z</time>
</trkpt>
<trkpt lat="31.8148200" lon="34.9947800">
<ele>236.919998</ele>
<time>2020-10-07T18:19:54.591Z</time>
</trkpt>
<trkpt lat="31.8149500" lon="34.9948800">
<ele>239.039993</ele>
<time>2020-10-07T18:19:54.591Z</time>
</trkpt>
<trkpt lat="31.8155000" lon="34.9953400">
<ele>244.790009</ele>
<time>2020-10-07T18:19:54.591Z</time>
</trkpt>
<trkpt lat="31.8157100" lon="34.9955800">
<ele>238.610001</ele>
<time>2020-10-07T18:19:54.591Z</time>
</trkpt>
<trkpt lat="31.8157500" lon="34.9956200">
<ele>237.830002</ele>
<time>2020-10-07T18:19:54.591Z</time>
</trkpt>
<trkpt lat="31.8157900" lon="34.9957100">
<ele>236.889999</ele>
<time>2020-10-07T18:19:54.591Z</time>
</trkpt>
<trkpt lat="31.8158500" lon="34.9958700">
<ele>235.930008</ele>
<time>2020-10-07T18:19:54.591Z</time>
</trkpt>
<trkpt lat="31.8159400" lon="34.9963200">
<ele>234.940002</ele>
<time>2020-10-07T18:19:54.591Z</time>
</trkpt>
<trkpt lat="31.8160300" lon="34.9968200">
<ele>226.290009</ele>
<time>2020-10-07T18:19:54.591Z</time>
</trkpt>
<trkpt lat="31.8159800" lon="34.9969500">
<ele>225.890015</ele>
<time>2020-10-07T18:19:54.591Z</time>
</trkpt>
<trkpt lat="31.8158900" lon="34.9971200">
<ele>225.199997</ele>
<time>2020-10-07T18:19:54.591Z</time>
</trkpt>
<trkpt lat="31.8158400" lon="34.9972000">
<ele>225.089996</ele>
<time>2020-10-07T18:19:54.591Z</time>
</trkpt>
<trkpt lat="31.8158400" lon="34.9972000">
<ele>225.089996</ele>
<time>2020-10-07T18:19:54.591Z</time>
</trkpt>
<trkpt lat="31.8158400" lon="34.9972000">
<ele>225.089996</ele>
<time>2020-10-07T18:19:54.591Z</time>
</trkpt>
<trkpt lat="31.8154800" lon="34.9977700">
<ele>231.569992</ele>
<time>2020-10-07T18:19:54.591Z</time>
</trkpt>
<trkpt lat="31.8152700" lon="34.9980100">
<ele>229.680008</ele>
<time>2020-10-07T18:19:54.591Z</time>
</trkpt>
<trkpt lat="31.8152000" lon="34.9980500">
<ele>229.350006</ele>
<time>2020-10-07T18:19:54.591Z</time>
</trkpt>
<trkpt lat="31.8150200" lon="34.9981700">
<ele>229.129990</ele>
<time>2020-10-07T18:19:54.591Z</time>
</trkpt>
<trkpt lat="31.8148600" lon="34.9983400">
<ele>228.529999</ele>
<time>2020-10-07T18:19:54.591Z</time>
</trkpt>
<trkpt lat="31.8147900" lon="34.9984300">
<ele>228.930008</ele>
<time>2020-10-07T18:19:54.591Z</time>
</trkpt>
<trkpt lat="31.8145900" lon="34.9987800">
<ele>231.380005</ele>
<time>2020-10-07T18:19:54.591Z</time>
</trkpt>
<trkpt lat="31.8143300" lon="34.9990800">
<ele>233.750000</ele>
<time>2020-10-07T18:19:54.591Z</time>
</trkpt>
<trkpt lat="31.8140600" lon="34.9995200">
<ele>230.179993</ele>
<time>2020-10-07T18:19:54.591Z</time>
</trkpt>
<trkpt lat="31.8139400" lon="34.9996200">
<ele>229.449997</ele>
<time>2020-10-07T18:19:54.591Z</time>
</trkpt>
<trkpt lat="31.8135500" lon="34.9998100">
<ele>234.219986</ele>
<time>2020-10-07T18:19:54.591Z</time>
</trkpt>
<trkpt lat="31.8134200" lon="34.9998900">
<ele>234.069992</ele>
<time>2020-10-07T18:19:54.591Z</time>
</trkpt>
<trkpt lat="31.8131400" lon="35.0001400">
<ele>234.929993</ele>
<time>2020-10-07T18:19:54.591Z</time>
</trkpt>
<trkpt lat="31.8129500" lon="35.0002600">
<ele>236.129990</ele>
<time>2020-10-07T18:19:54.591Z</time>
</trkpt>
<trkpt lat="31.8128500" lon="35.0003000">
<ele>237.479996</ele>
<time>2020-10-07T18:19:54.591Z</time>
</trkpt>
<trkpt lat="31.8127400" lon="35.0003200">
<ele>238.779999</ele>
<time>2020-10-07T18:19:54.591Z</time>
</trkpt>
<trkpt lat="31.8126800" lon="35.0003500">
<ele>238.919998</ele>
<time>2020-10-07T18:19:54.591Z</time>
</trkpt>
<trkpt lat="31.8125300" lon="35.0003600">
<ele>240.230011</ele>
<time>2020-10-07T18:19:54.591Z</time>
</trkpt>
<trkpt lat="31.8124700" lon="35.0003900">
<ele>240.589996</ele>
<time>2020-10-07T18:19:54.591Z</time>
</trkpt>
<trkpt lat="31.8123600" lon="35.0004000">
<ele>242.699997</ele>
<time>2020-10-07T18:19:54.591Z</time>
</trkpt>
<trkpt lat="31.8119700" lon="35.0006100">
<ele>243.330002</ele>
<time>2020-10-07T18:19:54.591Z</time>
</trkpt>
<trkpt lat="31.8119200" lon="35.0006600">
<ele>243.520004</ele>
<time>2020-10-07T18:19:54.591Z</time>
</trkpt>
<trkpt lat="31.8113600" lon="35.0014900">
<ele>250.100006</ele>
<time>2020-10-07T18:19:54.591Z</time>
</trkpt>
<trkpt lat="31.8110100" lon="35.0020900">
<ele>247.330002</ele>
<time>2020-10-07T18:19:54.591Z</time>
</trkpt>
<trkpt lat="31.8108700" lon="35.0024700">
<ele>246.310013</ele>
<time>2020-10-07T18:19:54.591Z</time>
</trkpt>
<trkpt lat="31.8107700" lon="35.0026500">
<ele>246.890015</ele>
<time>2020-10-07T18:19:54.591Z</time>
</trkpt>
<trkpt lat="31.8106500" lon="35.0028000">
<ele>248.610001</ele>
<time>2020-10-07T18:19:54.591Z</time>
</trkpt>
<trkpt lat="31.8104600" lon="35.0029200">
<ele>251.199997</ele>
<time>2020-10-07T18:19:54.591Z</time>
</trkpt>
<trkpt lat="31.8103600" lon="35.0029400">
<ele>251.389999</ele>
<time>2020-10-07T18:19:54.591Z</time>
</trkpt>
<trkpt lat="31.8101900" lon="35.0030100">
<ele>251.270004</ele>
<time>2020-10-07T18:19:54.591Z</time>
</trkpt>
<trkpt lat="31.8100100" lon="35.0030300">
<ele>251.270004</ele>
<time>2020-10-07T18:19:54.591Z</time>
</trkpt>
<trkpt lat="31.8099400" lon="35.0030500">
<ele>250.019989</ele>
<time>2020-10-07T18:19:54.591Z</time>
</trkpt>
<trkpt lat="31.8092200" lon="35.0030600">
<ele>249.639999</ele>
<time>2020-10-07T18:19:54.591Z</time>
</trkpt>
<trkpt lat="31.8089600" lon="35.0031900">
<ele>253.839996</ele>
<time>2020-10-07T18:19:54.591Z</time>
</trkpt>
<trkpt lat="31.8087700" lon="35.0033100">
<ele>254.570007</ele>
<time>2020-10-07T18:19:54.591Z</time>
</trkpt>
<trkpt lat="31.8085700" lon="35.0033900">
<ele>253.559998</ele>
<time>2020-10-07T18:19:54.591Z</time>
</trkpt>
<trkpt lat="31.8083600" lon="35.0033500">
<ele>253.830002</ele>
<time>2020-10-07T18:19:54.591Z</time>
</trkpt>
<trkpt lat="31.8076100" lon="35.0036600">
<ele>258.179993</ele>
<time>2020-10-07T18:19:54.591Z</time>
</trkpt>
<trkpt lat="31.8071500" lon="35.0041500">
<ele>255.000000</ele>
<time>2020-10-07T18:19:54.591Z</time>
</trkpt>
<trkpt lat="31.8069100" lon="35.0042200">
<ele>257.809998</ele>
<time>2020-10-07T18:19:54.591Z</time>
</trkpt>
<trkpt lat="31.8069100" lon="35.0042200">
<ele>257.809998</ele>
<time>2020-10-07T18:19:54.591Z</time>
</trkpt>
<trkpt lat="31.8069100" lon="35.0042200">
<ele>257.809998</ele>
<time>2020-10-07T18:19:54.591Z</time>
</trkpt>
<trkpt lat="31.8069700" lon="35.0041200">
<ele>259.779999</ele>
<time>2020-10-07T18:19:54.591Z</time>
</trkpt>
<trkpt lat="31.8070400" lon="35.0040200">
<ele>260.979980</ele>
<time>2020-10-07T18:19:54.591Z</time>
</trkpt>
<trkpt lat="31.8072200" lon="35.0038800">
<ele>260.179993</ele>
<time>2020-10-07T18:19:54.591Z</time>
</trkpt>
<trkpt lat="31.8073500" lon="35.0037500">
<ele>260.160004</ele>
<time>2020-10-07T18:19:54.591Z</time>
</trkpt>
<trkpt lat="31.8074100" lon="35.0036500">
<ele>260.739990</ele>
<time>2020-10-07T18:19:54.591Z</time>
</trkpt>
<trkpt lat="31.8074800" lon="35.0035400">
<ele>260.639984</ele>
<time>2020-10-07T18:19:54.592Z</time>
</trkpt>
<trkpt lat="31.8075800" lon="35.0032700">
<ele>261.589996</ele>
<time>2020-10-07T18:19:54.592Z</time>
</trkpt>
<trkpt lat="31.8075800" lon="35.0029900">
<ele>265.260010</ele>
<time>2020-10-07T18:19:54.592Z</time>
</trkpt>
<trkpt lat="31.8076500" lon="35.0029100">
<ele>267.419983</ele>
<time>2020-10-07T18:19:54.592Z</time>
</trkpt>
<trkpt lat="31.8082800" lon="35.0027500">
<ele>261.239990</ele>
<time>2020-10-07T18:19:54.592Z</time>
</trkpt>
<trkpt lat="31.8083900" lon="35.0026100">
<ele>263.050018</ele>
<time>2020-10-07T18:19:54.592Z</time>
</trkpt>
<trkpt lat="31.8086700" lon="35.0019600">
<ele>273.459991</ele>
<time>2020-10-07T18:19:54.592Z</time>
</trkpt>
<trkpt lat="31.8089000" lon="35.0017400">
<ele>278.079987</ele>
<time>2020-10-07T18:19:54.592Z</time>
</trkpt>
<trkpt lat="31.8094700" lon="35.0015900">
<ele>274.639984</ele>
<time>2020-10-07T18:19:54.592Z</time>
</trkpt>
<trkpt lat="31.8097800" lon="35.0013400">
<ele>272.839996</ele>
<time>2020-10-07T18:19:54.592Z</time>
</trkpt>
<trkpt lat="31.8099800" lon="35.0008900">
<ele>273.329987</ele>
<time>2020-10-07T18:19:54.592Z</time>
</trkpt>
<trkpt lat="31.8103600" lon="34.9998500">
<ele>274.679993</ele>
<time>2020-10-07T18:19:54.592Z</time>
</trkpt>
<trkpt lat="31.8106600" lon="34.9993400">
<ele>273.809998</ele>
<time>2020-10-07T18:19:54.592Z</time>
</trkpt>
<trkpt lat="31.8108100" lon="34.9991800">
<ele>271.610016</ele>
<time>2020-10-07T18:19:54.592Z</time>
</trkpt>
<trkpt lat="31.8109600" lon="34.9990700">
<ele>274.350006</ele>
<time>2020-10-07T18:19:54.592Z</time>
</trkpt>
<trkpt lat="31.8113400" lon="34.9989500">
<ele>276.140015</ele>
<time>2020-10-07T18:19:54.592Z</time>
</trkpt>
<trkpt lat="31.8117900" lon="34.9985100">
<ele>282.690002</ele>
<time>2020-10-07T18:19:54.592Z</time>
</trkpt>
<trkpt lat="31.8118900" lon="34.9984100">
<ele>283.350006</ele>
<time>2020-10-07T18:19:54.592Z</time>
</trkpt>
<trkpt lat="31.8123700" lon="34.9977500">
<ele>282.600006</ele>
<time>2020-10-07T18:19:54.592Z</time>
</trkpt>
<trkpt lat="31.8123700" lon="34.9977500">
<ele>282.600006</ele>
<time>2020-10-07T18:19:54.592Z</time>
</trkpt>
<trkpt lat="31.8123700" lon="34.9977500">
<ele>282.600006</ele>
<time>2020-10-07T18:19:54.592Z</time>
</trkpt>
<trkpt lat="31.8122300" lon="34.9978000">
<ele>284.000000</ele>
<time>2020-10-07T18:19:54.592Z</time>
</trkpt>
<trkpt lat="31.8120800" lon="34.9978800">
<ele>287.199982</ele>
<time>2020-10-07T18:19:54.592Z</time>
</trkpt>
<trkpt lat="31.8119800" lon="34.9979500">
<ele>288.559998</ele>
<time>2020-10-07T18:19:54.592Z</time>
</trkpt>
<trkpt lat="31.8116000" lon="34.9981500">
<ele>291.049988</ele>
<time>2020-10-07T18:19:54.592Z</time>
</trkpt>
<trkpt lat="31.8115400" lon="34.9981600">
<ele>291.410004</ele>
<time>2020-10-07T18:19:54.592Z</time>
</trkpt>
<trkpt lat="31.8113100" lon="34.9982800">
<ele>294.609985</ele>
<time>2020-10-07T18:19:54.592Z</time>
</trkpt>
<trkpt lat="31.8111800" lon="34.9983300">
<ele>295.019989</ele>
<time>2020-10-07T18:19:54.592Z</time>
</trkpt>
<trkpt lat="31.8103700" lon="34.9985000">
<ele>301.529999</ele>
<time>2020-10-07T18:19:54.592Z</time>
</trkpt>
<trkpt lat="31.8101000" lon="34.9985800">
<ele>303.809998</ele>
<time>2020-10-07T18:19:54.592Z</time>
</trkpt>
<trkpt lat="31.8099300" lon="34.9986400">
<ele>306.180023</ele>
<time>2020-10-07T18:19:54.592Z</time>
</trkpt>
<trkpt lat="31.8096800" lon="34.9987600">
<ele>308.660004</ele>
<time>2020-10-07T18:19:54.592Z</time>
</trkpt>
<trkpt lat="31.8095500" lon="34.9987600">
<ele>310.250000</ele>
<time>2020-10-07T18:19:54.592Z</time>
</trkpt>
<trkpt lat="31.8090800" lon="34.9986300">
<ele>318.359985</ele>
<time>2020-10-07T18:19:54.592Z</time>
</trkpt>
<trkpt lat="31.8090100" lon="34.9985700">
<ele>319.399994</ele>
<time>2020-10-07T18:19:54.592Z</time>
</trkpt>
<trkpt lat="31.8089600" lon="34.9985100">
<ele>320.339996</ele>
<time>2020-10-07T18:19:54.592Z</time>
</trkpt>
<trkpt lat="31.8089200" lon="34.9984100">
<ele>321.279999</ele>
<time>2020-10-07T18:19:54.592Z</time>
</trkpt>
<trkpt lat="31.8089200" lon="34.9981600">
<ele>320.299988</ele>
<time>2020-10-07T18:19:54.592Z</time>
</trkpt>
<trkpt lat="31.8089400" lon="34.9981000">
<ele>319.580017</ele>
<time>2020-10-07T18:19:54.592Z</time>
</trkpt>
<trkpt lat="31.8089600" lon="34.9978100">
<ele>318.300018</ele>
<time>2020-10-07T18:19:54.592Z</time>
</trkpt>
<trkpt lat="31.8090500" lon="34.9972500">
<ele>313.690002</ele>
<time>2020-10-07T18:19:54.592Z</time>
</trkpt>
<trkpt lat="31.8090100" lon="34.9969800">
<ele>313.619995</ele>
<time>2020-10-07T18:19:54.592Z</time>
</trkpt>
<trkpt lat="31.8089300" lon="34.9968200">
<ele>314.529999</ele>
<time>2020-10-07T18:19:54.592Z</time>
</trkpt>
<trkpt lat="31.8087900" lon="34.9967200">
<ele>314.690002</ele>
<time>2020-10-07T18:19:54.592Z</time>
</trkpt>
<trkpt lat="31.8087100" lon="34.9967000">
<ele>314.059998</ele>
<time>2020-10-07T18:19:54.592Z</time>
</trkpt>
<trkpt lat="31.8084400" lon="34.9967000">
<ele>314.339996</ele>
<time>2020-10-07T18:19:54.592Z</time>
</trkpt>
<trkpt lat="31.8083200" lon="34.9967400">
<ele>314.830017</ele>
<time>2020-10-07T18:19:54.592Z</time>
</trkpt>
<trkpt lat="31.8079000" lon="34.9969700">
<ele>319.940002</ele>
<time>2020-10-07T18:19:54.592Z</time>
</trkpt>
<trkpt lat="31.8076500" lon="34.9972200">
<ele>324.049988</ele>
<time>2020-10-07T18:19:54.592Z</time>
</trkpt>
<trkpt lat="31.8074900" lon="34.9974700">
<ele>326.390015</ele>
<time>2020-10-07T18:19:54.592Z</time>
</trkpt>
<trkpt lat="31.8073400" lon="34.9978500">
<ele>329.779968</ele>
<time>2020-10-07T18:19:54.592Z</time>
</trkpt>
<trkpt lat="31.8073300" lon="34.9988700">
<ele>337.529999</ele>
<time>2020-10-07T18:19:54.592Z</time>
</trkpt>
<trkpt lat="31.8072900" lon="34.9989600">
<ele>336.840027</ele>
<time>2020-10-07T18:19:54.592Z</time>
</trkpt>
<trkpt lat="31.8072100" lon="34.9990800">
<ele>335.170013</ele>
<time>2020-10-07T18:19:54.592Z</time>
</trkpt>
<trkpt lat="31.8071600" lon="34.9991300">
<ele>334.429993</ele>
<time>2020-10-07T18:19:54.592Z</time>
</trkpt>
<trkpt lat="31.8069700" lon="34.9992500">
<ele>333.179993</ele>
<time>2020-10-07T18:19:54.592Z</time>
</trkpt>
<trkpt lat="31.8066700" lon="34.9992700">
<ele>334.839996</ele>
<time>2020-10-07T18:19:54.592Z</time>
</trkpt>
<trkpt lat="31.8063400" lon="34.9991400">
<ele>337.970001</ele>
<time>2020-10-07T18:19:54.592Z</time>
</trkpt>
<trkpt lat="31.8063400" lon="34.9991400">
<ele>337.970001</ele>
<time>2020-10-07T18:19:54.592Z</time>
</trkpt>
<trkpt lat="31.8063400" lon="34.9991400">
<ele>337.970001</ele>
<time>2020-10-07T18:19:54.592Z</time>
</trkpt>
<trkpt lat="31.8062600" lon="34.9991100">
<ele>338.110016</ele>
<time>2020-10-07T18:19:54.592Z</time>
</trkpt>
<trkpt lat="31.8060200" lon="34.9990300">
<ele>339.339996</ele>
<time>2020-10-07T18:19:54.592Z</time>
</trkpt>
<trkpt lat="31.8059200" lon="34.9989800">
<ele>340.059998</ele>
<time>2020-10-07T18:19:54.592Z</time>
</trkpt>
<trkpt lat="31.8058400" lon="34.9989100">
<ele>340.209991</ele>
<time>2020-10-07T18:19:54.592Z</time>
</trkpt>
<trkpt lat="31.8057900" lon="34.9988400">
<ele>339.849976</ele>
<time>2020-10-07T18:19:54.593Z</time>
</trkpt>
<trkpt lat="31.8056700" lon="34.9985300">
<ele>335.059998</ele>
<time>2020-10-07T18:19:54.593Z</time>
</trkpt>
<trkpt lat="31.8055800" lon="34.9983300">
<ele>332.510010</ele>
<time>2020-10-07T18:19:54.593Z</time>
</trkpt>
<trkpt lat="31.8054700" lon="34.9981600">
<ele>332.349976</ele>
<time>2020-10-07T18:19:54.593Z</time>
</trkpt>
<trkpt lat="31.8053800" lon="34.9980500">
<ele>332.709991</ele>
<time>2020-10-07T18:19:54.593Z</time>
</trkpt>
<trkpt lat="31.8051500" lon="34.9979200">
<ele>334.010010</ele>
<time>2020-10-07T18:19:54.593Z</time>
</trkpt>
<trkpt lat="31.8049600" lon="34.9978800">
<ele>333.729980</ele>
<time>2020-10-07T18:19:54.593Z</time>
</trkpt>
<trkpt lat="31.8047800" lon="34.9978800">
<ele>333.259979</ele>
<time>2020-10-07T18:19:54.593Z</time>
</trkpt>
<trkpt lat="31.8045900" lon="34.9979300">
<ele>331.520020</ele>
<time>2020-10-07T18:19:54.593Z</time>
</trkpt>
<trkpt lat="31.8043700" lon="34.9980400">
<ele>330.020020</ele>
<time>2020-10-07T18:19:54.593Z</time>
</trkpt>
<trkpt lat="31.8042000" lon="34.9981900">
<ele>330.299988</ele>
<time>2020-10-07T18:19:54.593Z</time>
</trkpt>
<trkpt lat="31.8040000" lon="34.9984000">
<ele>330.540009</ele>
<time>2020-10-07T18:19:54.593Z</time>
</trkpt>
<trkpt lat="31.8038000" lon="34.9985800">
<ele>330.519989</ele>
<time>2020-10-07T18:19:54.593Z</time>
</trkpt>
<trkpt lat="31.8034100" lon="34.9988700">
<ele>331.140015</ele>
<time>2020-10-07T18:19:54.593Z</time>
</trkpt>
<trkpt lat="31.8028800" lon="34.9993800">
<ele>336.100006</ele>
<time>2020-10-07T18:19:54.593Z</time>
</trkpt>
<trkpt lat="31.8028200" lon="34.9994100">
<ele>335.300018</ele>
<time>2020-10-07T18:19:54.593Z</time>
</trkpt>
<trkpt lat="31.8027500" lon="34.9994500">
<ele>335.569977</ele>
<time>2020-10-07T18:19:54.593Z</time>
</trkpt>
<trkpt lat="31.8026400" lon="34.9994500">
<ele>337.089996</ele>
<time>2020-10-07T18:19:54.593Z</time>
</trkpt>
<trkpt lat="31.8025900" lon="34.9994300">
<ele>337.390015</ele>
<time>2020-10-07T18:19:54.593Z</time>
</trkpt>
<trkpt lat="31.8022800" lon="34.9991800">
<ele>337.170013</ele>
<time>2020-10-07T18:19:54.593Z</time>
</trkpt>
<trkpt lat="31.8022400" lon="34.9991400">
<ele>337.390015</ele>
<time>2020-10-07T18:19:54.593Z</time>
</trkpt>
<trkpt lat="31.8021800" lon="34.9990000">
<ele>337.050018</ele>
<time>2020-10-07T18:19:54.593Z</time>
</trkpt>
<trkpt lat="31.8020800" lon="34.9988900">
<ele>338.080017</ele>
<time>2020-10-07T18:19:54.593Z</time>
</trkpt>
<trkpt lat="31.8018600" lon="34.9988000">
<ele>342.279968</ele>
<time>2020-10-07T18:19:54.593Z</time>
</trkpt>
<trkpt lat="31.8017000" lon="34.9986900">
<ele>345.480011</ele>
<time>2020-10-07T18:19:54.593Z</time>
</trkpt>
<trkpt lat="31.8016200" lon="34.9986500">
<ele>346.450012</ele>
<time>2020-10-07T18:19:54.593Z</time>
</trkpt>
<trkpt lat="31.8015300" lon="34.9986500">
<ele>347.059998</ele>
<time>2020-10-07T18:19:54.593Z</time>
</trkpt>
<trkpt lat="31.8014500" lon="34.9987000">
<ele>347.630005</ele>
<time>2020-10-07T18:19:54.593Z</time>
</trkpt>
<trkpt lat="31.8010700" lon="34.9990500">
<ele>350.419983</ele>
<time>2020-10-07T18:19:54.593Z</time>
</trkpt>
<trkpt lat="31.8009700" lon="34.9991600">
<ele>352.440002</ele>
<time>2020-10-07T18:19:54.593Z</time>
</trkpt>
<trkpt lat="31.8008800" lon="34.9993000">
<ele>355.169983</ele>
<time>2020-10-07T18:19:54.593Z</time>
</trkpt>
<trkpt lat="31.8008600" lon="34.9994000">
<ele>356.830017</ele>
<time>2020-10-07T18:19:54.593Z</time>
</trkpt>
<trkpt lat="31.8008600" lon="34.9995900">
<ele>358.820007</ele>
<time>2020-10-07T18:19:54.593Z</time>
</trkpt>
<trkpt lat="31.8008500" lon="34.9996900">
<ele>359.779999</ele>
<time>2020-10-07T18:19:54.593Z</time>
</trkpt>
<trkpt lat="31.8007900" lon="34.9997700">
<ele>361.059998</ele>
<time>2020-10-07T18:19:54.593Z</time>
</trkpt>
<trkpt lat="31.8007300" lon="34.9998100">
<ele>362.079987</ele>
<time>2020-10-07T18:19:54.593Z</time>
</trkpt>
<trkpt lat="31.8005500" lon="34.9998300">
<ele>364.069977</ele>
<time>2020-10-07T18:19:54.593Z</time>
</trkpt>
<trkpt lat="31.8001900" lon="34.9998300">
<ele>367.119995</ele>
<time>2020-10-07T18:19:54.593Z</time>
</trkpt>
<trkpt lat="31.8000000" lon="34.9997900">
<ele>365.980011</ele>
<time>2020-10-07T18:19:54.593Z</time>
</trkpt>
<trkpt lat="31.7998200" lon="34.9997900">
<ele>364.029999</ele>
<time>2020-10-07T18:19:54.593Z</time>
</trkpt>
<trkpt lat="31.7997100" lon="34.9998700">
<ele>364.000000</ele>
<time>2020-10-07T18:19:54.593Z</time>
</trkpt>
<trkpt lat="31.7996900" lon="34.9999000">
<ele>364.240021</ele>
<time>2020-10-07T18:19:54.593Z</time>
</trkpt>
<trkpt lat="31.7997000" lon="34.9999400">
<ele>364.940002</ele>
<time>2020-10-07T18:19:54.593Z</time>
</trkpt>
<trkpt lat="31.7997200" lon="34.9999800">
<ele>365.690002</ele>
<time>2020-10-07T18:19:54.593Z</time>
</trkpt>
<trkpt lat="31.7997200" lon="34.9999800">
<ele>365.690002</ele>
<time>2020-10-07T18:19:54.593Z</time>
</trkpt>
<trkpt lat="31.7997200" lon="34.9999800">
<ele>365.690002</ele>
<time>2020-10-07T18:19:54.593Z</time>
</trkpt>
<trkpt lat="31.7998700" lon="35.0002100">
<ele>368.349976</ele>
<time>2020-10-07T18:19:54.593Z</time>
</trkpt>
<trkpt lat="31.7999000" lon="35.0002900">
<ele>368.660004</ele>
<time>2020-10-07T18:19:54.593Z</time>
</trkpt>
<trkpt lat="31.7999300" lon="35.0004500">
<ele>365.369995</ele>
<time>2020-10-07T18:19:54.593Z</time>
</trkpt>
<trkpt lat="31.7998400" lon="35.0006000">
<ele>361.950012</ele>
<time>2020-10-07T18:19:54.593Z</time>
</trkpt>
<trkpt lat="31.7996500" lon="35.0008100">
<ele>356.779999</ele>
<time>2020-10-07T18:19:54.593Z</time>
</trkpt>
<trkpt lat="31.7994800" lon="35.0009600">
<ele>354.650024</ele>
<time>2020-10-07T18:19:54.593Z</time>
</trkpt>
<trkpt lat="31.7993600" lon="35.0010300">
<ele>356.630005</ele>
<time>2020-10-07T18:19:54.593Z</time>
</trkpt>
<trkpt lat="31.7990800" lon="35.0010800">
<ele>365.829987</ele>
<time>2020-10-07T18:19:54.593Z</time>
</trkpt>
<trkpt lat="31.7989600" lon="35.0011200">
<ele>368.789978</ele>
<time>2020-10-07T18:19:54.593Z</time>
</trkpt>
<trkpt lat="31.7988500" lon="35.0011200">
<ele>370.649994</ele>
<time>2020-10-07T18:19:54.593Z</time>
</trkpt>
<trkpt lat="31.7987400" lon="35.0011000">
<ele>370.539978</ele>
<time>2020-10-07T18:19:54.593Z</time>
</trkpt>
<trkpt lat="31.7985400" lon="35.0009900">
<ele>368.789978</ele>
<time>2020-10-07T18:19:54.593Z</time>
</trkpt>
<trkpt lat="31.7982500" lon="35.0007800">
<ele>361.459991</ele>
<time>2020-10-07T18:19:54.593Z</time>
</trkpt>
<trkpt lat="31.7981600" lon="35.0007500">
<ele>358.840027</ele>
<time>2020-10-07T18:19:54.593Z</time>
</trkpt>
<trkpt lat="31.7981100" lon="35.0007300">
<ele>357.330017</ele>
<time>2020-10-07T18:19:54.593Z</time>
</trkpt>
<trkpt lat="31.7977500" lon="35.0007300">
<ele>346.269989</ele>
<time>2020-10-07T18:19:54.593Z</time>
</trkpt>
<trkpt lat="31.7975000" lon="35.0008000">
<ele>343.000000</ele>
<time>2020-10-07T18:19:54.593Z</time>
</trkpt>
<trkpt lat="31.7971400" lon="35.0008500">
<ele>345.860016</ele>
<time>2020-10-07T18:19:54.593Z</time>
</trkpt>
<trkpt lat="31.7967600" lon="35.0007400">
<ele>352.880005</ele>
<time>2020-10-07T18:19:54.593Z</time>
</trkpt>
<trkpt lat="31.7966600" lon="35.0007100">
<ele>354.589996</ele>
<time>2020-10-07T18:19:54.593Z</time>
</trkpt>
<trkpt lat="31.7963600" lon="35.0005400">
<ele>360.070007</ele>
<time>2020-10-07T18:19:54.594Z</time>
</trkpt>
<trkpt lat="31.7960100" lon="35.0004100">
<ele>359.470001</ele>
<time>2020-10-07T18:19:54.594Z</time>
</trkpt>
<trkpt lat="31.7958400" lon="35.0003500">
<ele>357.139984</ele>
<time>2020-10-07T18:19:54.594Z</time>
</trkpt>
<trkpt lat="31.7955200" lon="35.0004300">
<ele>360.179993</ele>
<time>2020-10-07T18:19:54.594Z</time>
</trkpt>
<trkpt lat="31.7949600" lon="35.0004600">
<ele>351.090027</ele>
<time>2020-10-07T18:19:54.594Z</time>
</trkpt>
<trkpt lat="31.7943900" lon="35.0006100">
<ele>351.549988</ele>
<time>2020-10-07T18:19:54.594Z</time>
</trkpt>
<trkpt lat="31.7943300" lon="35.0006800">
<ele>352.630005</ele>
<time>2020-10-07T18:19:54.594Z</time>
</trkpt>
<trkpt lat="31.7944300" lon="35.0007900">
<ele>352.859985</ele>
<time>2020-10-07T18:19:54.594Z</time>
</trkpt>
<trkpt lat="31.7945300" lon="35.0007900">
<ele>353.419983</ele>
<time>2020-10-07T18:19:54.594Z</time>
</trkpt>
<trkpt lat="31.7949100" lon="35.0006700">
<ele>355.609985</ele>
<time>2020-10-07T18:19:54.594Z</time>
</trkpt>
<trkpt lat="31.7950500" lon="35.0006400">
<ele>357.500000</ele>
<time>2020-10-07T18:19:54.594Z</time>
</trkpt>
<trkpt lat="31.7953200" lon="35.0006500">
<ele>365.040009</ele>
<time>2020-10-07T18:19:54.594Z</time>
</trkpt>
<trkpt lat="31.7954100" lon="35.0006700">
<ele>366.980011</ele>
<time>2020-10-07T18:19:54.594Z</time>
</trkpt>
<trkpt lat="31.7956600" lon="35.0007900">
<ele>372.750000</ele>
<time>2020-10-07T18:19:54.594Z</time>
</trkpt>
<trkpt lat="31.7958200" lon="35.0009200">
<ele>374.619995</ele>
<time>2020-10-07T18:19:54.594Z</time>
</trkpt>
<trkpt lat="31.7958800" lon="35.0010100">
<ele>374.489990</ele>
<time>2020-10-07T18:19:54.594Z</time>
</trkpt>
<trkpt lat="31.7959200" lon="35.0011100">
<ele>374.429993</ele>
<time>2020-10-07T18:19:54.594Z</time>
</trkpt>
<trkpt lat="31.7959100" lon="35.0012600">
<ele>374.619995</ele>
<time>2020-10-07T18:19:54.594Z</time>
</trkpt>
<trkpt lat="31.7958100" lon="35.0015000">
<ele>377.070007</ele>
<time>2020-10-07T18:19:54.594Z</time>
</trkpt>
<trkpt lat="31.7956600" lon="35.0017200">
<ele>376.410004</ele>
<time>2020-10-07T18:19:54.594Z</time>
</trkpt>
<trkpt lat="31.7948900" lon="35.0025100">
<ele>380.120026</ele>
<time>2020-10-07T18:19:54.594Z</time>
</trkpt>
<trkpt lat="31.7947300" lon="35.0026500">
<ele>381.870026</ele>
<time>2020-10-07T18:19:54.594Z</time>
</trkpt>
<trkpt lat="31.7947300" lon="35.0026500">
<ele>381.870026</ele>
<time>2020-10-07T18:19:54.594Z</time>
</trkpt>
<trkpt lat="31.7946200" lon="35.0027600">
<ele>383.059998</ele>
<time>2020-10-07T18:19:54.594Z</time>
</trkpt>
<trkpt lat="31.7944900" lon="35.0029100">
<ele>384.350006</ele>
<time>2020-10-07T18:19:54.594Z</time>
</trkpt>
<trkpt lat="31.7944100" lon="35.0030200">
<ele>385.019989</ele>
<time>2020-10-07T18:19:54.594Z</time>
</trkpt>
<trkpt lat="31.7940800" lon="35.0036500">
<ele>384.860016</ele>
<time>2020-10-07T18:19:54.594Z</time>
</trkpt>
<trkpt lat="31.7940000" lon="35.0038400">
<ele>382.000000</ele>
<time>2020-10-07T18:19:54.594Z</time>
</trkpt>
<trkpt lat="31.7939100" lon="35.0040200">
<ele>378.539978</ele>
<time>2020-10-07T18:19:54.594Z</time>
</trkpt>
<trkpt lat="31.7935800" lon="35.0044700">
<ele>373.250000</ele>
<time>2020-10-07T18:19:54.594Z</time>
</trkpt>
<trkpt lat="31.7935500" lon="35.0044700">
<ele>373.390015</ele>
<time>2020-10-07T18:19:54.594Z</time>
</trkpt>
<trkpt lat="31.7935200" lon="35.0044800">
<ele>373.619995</ele>
<time>2020-10-07T18:19:54.594Z</time>
</trkpt>
<trkpt lat="31.7933700" lon="35.0045200">
<ele>375.079987</ele>
<time>2020-10-07T18:19:54.594Z</time>
</trkpt>
<trkpt lat="31.7932000" lon="35.0045800">
<ele>375.739990</ele>
<time>2020-10-07T18:19:54.594Z</time>
</trkpt>
<trkpt lat="31.7930900" lon="35.0045500">
<ele>374.899994</ele>
<time>2020-10-07T18:19:54.594Z</time>
</trkpt>
<trkpt lat="31.7929300" lon="35.0051800">
<ele>375.199982</ele>
<time>2020-10-07T18:19:54.594Z</time>
</trkpt>
<trkpt lat="31.7927400" lon="35.0053800">
<ele>374.910004</ele>
<time>2020-10-07T18:19:54.594Z</time>
</trkpt>
<trkpt lat="31.7927200" lon="35.0054100">
<ele>374.890015</ele>
<time>2020-10-07T18:19:54.594Z</time>
</trkpt>
<trkpt lat="31.7914100" lon="35.0066400">
<ele>376.880005</ele>
<time>2020-10-07T18:19:54.594Z</time>
</trkpt>
<trkpt lat="31.7910800" lon="35.0069500">
<ele>370.539978</ele>
<time>2020-10-07T18:19:54.594Z</time>
</trkpt>
<trkpt lat="31.7907300" lon="35.0072000">
<ele>368.929993</ele>
<time>2020-10-07T18:19:54.594Z</time>
</trkpt>
<trkpt lat="31.7905600" lon="35.0073500">
<ele>370.369995</ele>
<time>2020-10-07T18:19:54.594Z</time>
</trkpt>
<trkpt lat="31.7902400" lon="35.0078800">
<ele>372.509979</ele>
<time>2020-10-07T18:19:54.594Z</time>
</trkpt>
<trkpt lat="31.7900400" lon="35.0081700">
<ele>372.559998</ele>
<time>2020-10-07T18:19:54.594Z</time>
</trkpt>
<trkpt lat="31.7899000" lon="35.0083600">
<ele>372.059998</ele>
<time>2020-10-07T18:19:54.594Z</time>
</trkpt>
<trkpt lat="31.7897800" lon="35.0084600">
<ele>372.089996</ele>
<time>2020-10-07T18:19:54.594Z</time>
</trkpt>
<trkpt lat="31.7895900" lon="35.0085500">
<ele>371.689972</ele>
<time>2020-10-07T18:19:54.594Z</time>
</trkpt>
<trkpt lat="31.7895000" lon="35.0085800">
<ele>371.730011</ele>
<time>2020-10-07T18:19:54.594Z</time>
</trkpt>
<trkpt lat="31.7893600" lon="35.0086200">
<ele>369.869995</ele>
<time>2020-10-07T18:19:54.594Z</time>
</trkpt>
<trkpt lat="31.7893600" lon="35.0086200">
<ele>369.869995</ele>
<time>2020-10-07T18:19:54.594Z</time>
</trkpt>
<trkpt lat="31.7893600" lon="35.0086200">
<ele>369.869995</ele>
<time>2020-10-07T18:19:54.594Z</time>
</trkpt>
<trkpt lat="31.7893600" lon="35.0086200">
<ele>369.869995</ele>
<time>2020-10-07T18:19:54.594Z</time>
</trkpt>
<trkpt lat="31.7890900" lon="35.0087000">
<ele>363.330017</ele>
<time>2020-10-07T18:19:54.594Z</time>
</trkpt>
<trkpt lat="31.7886900" lon="35.0088600">
<ele>358.840027</ele>
<time>2020-10-07T18:19:54.594Z</time>
</trkpt>
<trkpt lat="31.7885200" lon="35.0089100">
<ele>356.639984</ele>
<time>2020-10-07T18:19:54.594Z</time>
</trkpt>
<trkpt lat="31.7880900" lon="35.0089800">
<ele>353.289978</ele>
<time>2020-10-07T18:19:54.594Z</time>
</trkpt>
<trkpt lat="31.7877500" lon="35.0091200">
<ele>354.890015</ele>
<time>2020-10-07T18:19:54.594Z</time>
</trkpt>
<trkpt lat="31.7876200" lon="35.0091500">
<ele>356.079987</ele>
<time>2020-10-07T18:19:54.594Z</time>
</trkpt>
<trkpt lat="31.7874900" lon="35.0091600">
<ele>356.749969</ele>
<time>2020-10-07T18:19:54.594Z</time>
</trkpt>
<trkpt lat="31.7872800" lon="35.0091300">
<ele>355.540009</ele>
<time>2020-10-07T18:19:54.594Z</time>
</trkpt>
<trkpt lat="31.7869000" lon="35.0090300">
<ele>355.220001</ele>
<time>2020-10-07T18:19:54.594Z</time>
</trkpt>
<trkpt lat="31.7863600" lon="35.0089300">
<ele>344.020020</ele>
<time>2020-10-07T18:19:54.594Z</time>
</trkpt>
<trkpt lat="31.7859500" lon="35.0088900">
<ele>343.179993</ele>
<time>2020-10-07T18:19:54.594Z</time>
</trkpt>
<trkpt lat="31.7856700" lon="35.0089400">
<ele>342.779999</ele>
<time>2020-10-07T18:19:54.594Z</time>
</trkpt>
<trkpt lat="31.7855000" lon="35.0090100">
<ele>343.359985</ele>
<time>2020-10-07T18:19:54.594Z</time>
</trkpt>
<trkpt lat="31.7853400" lon="35.0091100">
<ele>346.510010</ele>
<time>2020-10-07T18:19:54.594Z</time>
</trkpt>
<trkpt lat="31.7852100" lon="35.0092200">
<ele>347.880005</ele>
<time>2020-10-07T18:19:54.594Z</time>
</trkpt>
<trkpt lat="31.7851500" lon="35.0093000">
<ele>348.600006</ele>
<time>2020-10-07T18:19:54.595Z</time>
</trkpt>
<trkpt lat="31.7850200" lon="35.0095600">
<ele>351.390015</ele>
<time>2020-10-07T18:19:54.595Z</time>
</trkpt>
<trkpt lat="31.7849900" lon="35.0096800">
<ele>353.010010</ele>
<time>2020-10-07T18:19:54.595Z</time>
</trkpt>
<trkpt lat="31.7849400" lon="35.0100100">
<ele>355.989990</ele>
<time>2020-10-07T18:19:54.595Z</time>
</trkpt>
<trkpt lat="31.7849300" lon="35.0101700">
<ele>356.960022</ele>
<time>2020-10-07T18:19:54.595Z</time>
</trkpt>
<trkpt lat="31.7849300" lon="35.0101700">
<ele>356.960022</ele>
<time>2020-10-07T18:19:54.595Z</time>
</trkpt>
<trkpt lat="31.7848900" lon="35.0106900">
<ele>355.500000</ele>
<time>2020-10-07T18:19:54.595Z</time>
</trkpt>
<trkpt lat="31.7849000" lon="35.0107900">
<ele>356.040009</ele>
<time>2020-10-07T18:19:54.595Z</time>
</trkpt>
<trkpt lat="31.7849500" lon="35.0110100">
<ele>358.889984</ele>
<time>2020-10-07T18:19:54.595Z</time>
</trkpt>
<trkpt lat="31.7850100" lon="35.0111300">
<ele>360.380005</ele>
<time>2020-10-07T18:19:54.595Z</time>
</trkpt>
<trkpt lat="31.7851200" lon="35.0112400">
<ele>356.020020</ele>
<time>2020-10-07T18:19:54.595Z</time>
</trkpt>
<trkpt lat="31.7852700" lon="35.0113200">
<ele>351.850006</ele>
<time>2020-10-07T18:19:54.595Z</time>
</trkpt>
<trkpt lat="31.7854600" lon="35.0113700">
<ele>350.389984</ele>
<time>2020-10-07T18:19:54.595Z</time>
</trkpt>
<trkpt lat="31.7855200" lon="35.0113700">
<ele>350.360016</ele>
<time>2020-10-07T18:19:54.595Z</time>
</trkpt>
<trkpt lat="31.7857400" lon="35.0112900">
<ele>351.350006</ele>
<time>2020-10-07T18:19:54.595Z</time>
</trkpt>
<trkpt lat="31.7859200" lon="35.0111800">
<ele>351.799988</ele>
<time>2020-10-07T18:19:54.595Z</time>
</trkpt>
<trkpt lat="31.7860800" lon="35.0110500">
<ele>351.860016</ele>
<time>2020-10-07T18:19:54.595Z</time>
</trkpt>
<trkpt lat="31.7863300" lon="35.0107800">
<ele>354.059998</ele>
<time>2020-10-07T18:19:54.595Z</time>
</trkpt>
<trkpt lat="31.7864500" lon="35.0106900">
<ele>353.390015</ele>
<time>2020-10-07T18:19:54.595Z</time>
</trkpt>
<trkpt lat="31.7865500" lon="35.0106200">
<ele>353.419983</ele>
<time>2020-10-07T18:19:54.595Z</time>
</trkpt>
<trkpt lat="31.7867700" lon="35.0105400">
<ele>354.070007</ele>
<time>2020-10-07T18:19:54.595Z</time>
</trkpt>
<trkpt lat="31.7870700" lon="35.0105100">
<ele>354.980011</ele>
<time>2020-10-07T18:19:54.595Z</time>
</trkpt>
<trkpt lat="31.7876500" lon="35.0105400">
<ele>353.350006</ele>
<time>2020-10-07T18:19:54.595Z</time>
</trkpt>
<trkpt lat="31.7878800" lon="35.0105200">
<ele>355.760010</ele>
<time>2020-10-07T18:19:54.595Z</time>
</trkpt>
<trkpt lat="31.7878800" lon="35.0105200">
<ele>355.760010</ele>
<time>2020-10-07T18:19:54.595Z</time>
</trkpt>
<trkpt lat="31.7878800" lon="35.0105200">
<ele>355.760010</ele>
<time>2020-10-07T18:19:54.595Z</time>
</trkpt>
<trkpt lat="31.7878800" lon="35.0105200">
<ele>355.760010</ele>
<time>2020-10-07T18:19:54.595Z</time>
</trkpt>
<trkpt lat="31.7886500" lon="35.0104400">
<ele>353.400024</ele>
<time>2020-10-07T18:19:54.595Z</time>
</trkpt>
<trkpt lat="31.7888000" lon="35.0104600">
<ele>351.220001</ele>
<time>2020-10-07T18:19:54.595Z</time>
</trkpt>
<trkpt lat="31.7889800" lon="35.0105200">
<ele>350.450012</ele>
<time>2020-10-07T18:19:54.595Z</time>
</trkpt>
<trkpt lat="31.7894500" lon="35.0106000">
<ele>351.140015</ele>
<time>2020-10-07T18:19:54.595Z</time>
</trkpt>
<trkpt lat="31.7897500" lon="35.0105200">
<ele>349.250000</ele>
<time>2020-10-07T18:19:54.595Z</time>
</trkpt>
<trkpt lat="31.7899400" lon="35.0104000">
<ele>350.209991</ele>
<time>2020-10-07T18:19:54.595Z</time>
</trkpt>
<trkpt lat="31.7901500" lon="35.0102800">
<ele>353.480011</ele>
<time>2020-10-07T18:19:54.595Z</time>
</trkpt>
<trkpt lat="31.7902500" lon="35.0102600">
<ele>354.290009</ele>
<time>2020-10-07T18:19:54.595Z</time>
</trkpt>
<trkpt lat="31.7905100" lon="35.0102900">
<ele>354.560028</ele>
<time>2020-10-07T18:19:54.595Z</time>
</trkpt>
<trkpt lat="31.7912200" lon="35.0104600">
<ele>353.339996</ele>
<time>2020-10-07T18:19:54.595Z</time>
</trkpt>
<trkpt lat="31.7919500" lon="35.0107000">
<ele>349.910004</ele>
<time>2020-10-07T18:19:54.595Z</time>
</trkpt>
<trkpt lat="31.7921700" lon="35.0107500">
<ele>350.509979</ele>
<time>2020-10-07T18:19:54.595Z</time>
</trkpt>
<trkpt lat="31.7924300" lon="35.0108600">
<ele>349.299988</ele>
<time>2020-10-07T18:19:54.595Z</time>
</trkpt>
<trkpt lat="31.7925900" lon="35.0110400">
<ele>349.500000</ele>
<time>2020-10-07T18:19:54.595Z</time>
</trkpt>
<trkpt lat="31.7926800" lon="35.0110500">
<ele>349.349976</ele>
<time>2020-10-07T18:19:54.595Z</time>
</trkpt>
<trkpt lat="31.7929600" lon="35.0110100">
<ele>346.989990</ele>
<time>2020-10-07T18:19:54.595Z</time>
</trkpt>
<trkpt lat="31.7930500" lon="35.0110200">
<ele>346.410004</ele>
<time>2020-10-07T18:19:54.595Z</time>
</trkpt>
<trkpt lat="31.7932000" lon="35.0110800">
<ele>344.670013</ele>
<time>2020-10-07T18:19:54.595Z</time>
</trkpt>
<trkpt lat="31.7935900" lon="35.0112400">
<ele>342.400024</ele>
<time>2020-10-07T18:19:54.595Z</time>
</trkpt>
<trkpt lat="31.7940000" lon="35.0112600">
<ele>344.540009</ele>
<time>2020-10-07T18:19:54.595Z</time>
</trkpt>
<trkpt lat="31.7941400" lon="35.0112500">
<ele>344.500000</ele>
<time>2020-10-07T18:19:54.595Z</time>
</trkpt>
<trkpt lat="31.7942200" lon="35.0112100">
<ele>343.809998</ele>
<time>2020-10-07T18:19:54.595Z</time>
</trkpt>
<trkpt lat="31.7943900" lon="35.0109900">
<ele>340.679993</ele>
<time>2020-10-07T18:19:54.595Z</time>
</trkpt>
<trkpt lat="31.7944500" lon="35.0109600">
<ele>340.180023</ele>
<time>2020-10-07T18:19:54.595Z</time>
</trkpt>
<trkpt lat="31.7945200" lon="35.0109600">
<ele>341.399994</ele>
<time>2020-10-07T18:19:54.595Z</time>
</trkpt>
<trkpt lat="31.7949200" lon="35.0109900">
<ele>341.479980</ele>
<time>2020-10-07T18:19:54.595Z</time>
</trkpt>
<trkpt lat="31.7950700" lon="35.0110200">
<ele>339.410004</ele>
<time>2020-10-07T18:19:54.595Z</time>
</trkpt>
<trkpt lat="31.7951600" lon="35.0110600">
<ele>338.479980</ele>
<time>2020-10-07T18:19:54.595Z</time>
</trkpt>
<trkpt lat="31.7955900" lon="35.0113300">
<ele>332.090027</ele>
<time>2020-10-07T18:19:54.595Z</time>
</trkpt>
<trkpt lat="31.7956900" lon="35.0113700">
<ele>329.019989</ele>
<time>2020-10-07T18:19:54.595Z</time>
</trkpt>
<trkpt lat="31.7959000" lon="35.0114200">
<ele>323.659973</ele>
<time>2020-10-07T18:19:54.595Z</time>
</trkpt>
<trkpt lat="31.7960300" lon="35.0114300">
<ele>321.210022</ele>
<time>2020-10-07T18:19:54.595Z</time>
</trkpt>
<trkpt lat="31.7964500" lon="35.0113900">
<ele>320.539978</ele>
<time>2020-10-07T18:19:54.595Z</time>
</trkpt>
<trkpt lat="31.7968700" lon="35.0113700">
<ele>316.679993</ele>
<time>2020-10-07T18:19:54.595Z</time>
</trkpt>
<trkpt lat="31.7972400" lon="35.0112800">
<ele>319.240021</ele>
<time>2020-10-07T18:19:54.595Z</time>
</trkpt>
<trkpt lat="31.7973200" lon="35.0112500">
<ele>318.560028</ele>
<time>2020-10-07T18:19:54.595Z</time>
</trkpt>
<trkpt lat="31.7973200" lon="35.0112500">
<ele>318.560028</ele>
<time>2020-10-07T18:19:54.595Z</time>
</trkpt>
<trkpt lat="31.7973200" lon="35.0112500">
<ele>318.560028</ele>
<time>2020-10-07T18:19:54.595Z</time>
</trkpt>
<trkpt lat="31.7974200" lon="35.0112100">
<ele>316.959991</ele>
<time>2020-10-07T18:19:54.595Z</time>
</trkpt>
<trkpt lat="31.7976200" lon="35.0111900">
<ele>314.880005</ele>
<time>2020-10-07T18:19:54.595Z</time>
</trkpt>
<trkpt lat="31.7979500" lon="35.0113400">
<ele>314.580017</ele>
<time>2020-10-07T18:19:54.596Z</time>
</trkpt>
<trkpt lat="31.7982600" lon="35.0114100">
<ele>312.510010</ele>
<time>2020-10-07T18:19:54.596Z</time>
</trkpt>
<trkpt lat="31.7986700" lon="35.0117900">
<ele>312.829987</ele>
<time>2020-10-07T18:19:54.596Z</time>
</trkpt>
<trkpt lat="31.7987800" lon="35.0118800">
<ele>313.540009</ele>
<time>2020-10-07T18:19:54.596Z</time>
</trkpt>
<trkpt lat="31.7991300" lon="35.0121500">
<ele>307.989990</ele>
<time>2020-10-07T18:19:54.596Z</time>
</trkpt>
<trkpt lat="31.7991900" lon="35.0122600">
<ele>304.750000</ele>
<time>2020-10-07T18:19:54.596Z</time>
</trkpt>
<trkpt lat="31.7991800" lon="35.0122700">
<ele>304.720001</ele>
<time>2020-10-07T18:19:54.596Z</time>
</trkpt>
<trkpt lat="31.7991700" lon="35.0122800">
<ele>304.690002</ele>
<time>2020-10-07T18:19:54.596Z</time>
</trkpt>
<trkpt lat="31.7991600" lon="35.0123000">
<ele>304.420013</ele>
<time>2020-10-07T18:19:54.596Z</time>
</trkpt>
<trkpt lat="31.7991600" lon="35.0123200">
<ele>303.989990</ele>
<time>2020-10-07T18:19:54.596Z</time>
</trkpt>
<trkpt lat="31.7991500" lon="35.0123300">
<ele>303.940002</ele>
<time>2020-10-07T18:19:54.596Z</time>
</trkpt>
<trkpt lat="31.7991500" lon="35.0123500">
<ele>303.510010</ele>
<time>2020-10-07T18:19:54.596Z</time>
</trkpt>
<trkpt lat="31.7991500" lon="35.0123700">
<ele>303.079987</ele>
<time>2020-10-07T18:19:54.596Z</time>
</trkpt>
<trkpt lat="31.7991600" lon="35.0123900">
<ele>302.489990</ele>
<time>2020-10-07T18:19:54.596Z</time>
</trkpt>
<trkpt lat="31.7991600" lon="35.0124100">
<ele>302.059998</ele>
<time>2020-10-07T18:19:54.596Z</time>
</trkpt>
<trkpt lat="31.7991700" lon="35.0124200">
<ele>301.660004</ele>
<time>2020-10-07T18:19:54.596Z</time>
</trkpt>
<trkpt lat="31.7991800" lon="35.0124400">
<ele>301.020020</ele>
<time>2020-10-07T18:19:54.596Z</time>
</trkpt>
<trkpt lat="31.7991900" lon="35.0124500">
<ele>300.589996</ele>
<time>2020-10-07T18:19:54.596Z</time>
</trkpt>
<trkpt lat="31.7992100" lon="35.0124600">
<ele>299.950012</ele>
<time>2020-10-07T18:19:54.596Z</time>
</trkpt>
<trkpt lat="31.7992200" lon="35.0124600">
<ele>299.739990</ele>
<time>2020-10-07T18:19:54.596Z</time>
</trkpt>
<trkpt lat="31.7992400" lon="35.0124700">
<ele>299.089996</ele>
<time>2020-10-07T18:19:54.596Z</time>
</trkpt>
<trkpt lat="31.7992500" lon="35.0124700">
<ele>298.880005</ele>
<time>2020-10-07T18:19:54.596Z</time>
</trkpt>
<trkpt lat="31.7992700" lon="35.0124700">
<ele>298.459991</ele>
<time>2020-10-07T18:19:54.596Z</time>
</trkpt>
<trkpt lat="31.7992800" lon="35.0124600">
<ele>298.470001</ele>
<time>2020-10-07T18:19:54.596Z</time>
</trkpt>
<trkpt lat="31.7993000" lon="35.0124600">
<ele>298.049988</ele>
<time>2020-10-07T18:19:54.596Z</time>
</trkpt>
<trkpt lat="31.7993100" lon="35.0124500">
<ele>298.079987</ele>
<time>2020-10-07T18:19:54.596Z</time>
</trkpt>
<trkpt lat="31.7993200" lon="35.0124400">
<ele>298.100006</ele>
<time>2020-10-07T18:19:54.596Z</time>
</trkpt>
<trkpt lat="31.7993300" lon="35.0124200">
<ele>298.369995</ele>
<time>2020-10-07T18:19:54.596Z</time>
</trkpt>
<trkpt lat="31.7993400" lon="35.0124100">
<ele>298.399994</ele>
<time>2020-10-07T18:19:54.596Z</time>
</trkpt>
<trkpt lat="31.7993500" lon="35.0123900">
<ele>298.679993</ele>
<time>2020-10-07T18:19:54.596Z</time>
</trkpt>
<trkpt lat="31.7993500" lon="35.0123700">
<ele>299.160004</ele>
<time>2020-10-07T18:19:54.596Z</time>
</trkpt>
<trkpt lat="31.7993500" lon="35.0123500">
<ele>299.639984</ele>
<time>2020-10-07T18:19:54.596Z</time>
</trkpt>
<trkpt lat="31.7995200" lon="35.0123100">
<ele>297.510010</ele>
<time>2020-10-07T18:19:54.596Z</time>
</trkpt>
<trkpt lat="31.7996300" lon="35.0122800">
<ele>296.339996</ele>
<time>2020-10-07T18:19:54.596Z</time>
</trkpt>
<trkpt lat="31.8009000" lon="35.0121900">
<ele>290.510010</ele>
<time>2020-10-07T18:19:54.596Z</time>
</trkpt>
<trkpt lat="31.8011200" lon="35.0121300">
<ele>287.290009</ele>
<time>2020-10-07T18:19:54.596Z</time>
</trkpt>
<trkpt lat="31.8013700" lon="35.0120200">
<ele>288.059998</ele>
<time>2020-10-07T18:19:54.596Z</time>
</trkpt>
<trkpt lat="31.8015000" lon="35.0119300">
<ele>288.299988</ele>
<time>2020-10-07T18:19:54.596Z</time>
</trkpt>
<trkpt lat="31.8015700" lon="35.0118800">
<ele>288.160004</ele>
<time>2020-10-07T18:19:54.596Z</time>
</trkpt>
<trkpt lat="31.8016100" lon="35.0118500">
<ele>288.089996</ele>
<time>2020-10-07T18:19:54.596Z</time>
</trkpt>
<trkpt lat="31.8016900" lon="35.0117400">
<ele>288.089996</ele>
<time>2020-10-07T18:19:54.596Z</time>
</trkpt>
<trkpt lat="31.8017500" lon="35.0116200">
<ele>287.899994</ele>
<time>2020-10-07T18:19:54.596Z</time>
</trkpt>
<trkpt lat="31.8017800" lon="35.0116300">
<ele>287.480011</ele>
<time>2020-10-07T18:19:54.596Z</time>
</trkpt>
<trkpt lat="31.8018100" lon="35.0116300">
<ele>287.070007</ele>
<time>2020-10-07T18:19:54.596Z</time>
</trkpt>
<trkpt lat="31.8018400" lon="35.0116200">
<ele>286.709991</ele>
<time>2020-10-07T18:19:54.596Z</time>
</trkpt>
<trkpt lat="31.8018600" lon="35.0116000">
<ele>286.550018</ele>
<time>2020-10-07T18:19:54.596Z</time>
</trkpt>
<trkpt lat="31.8018900" lon="35.0115800">
<ele>286.290009</ele>
<time>2020-10-07T18:19:54.596Z</time>
</trkpt>
<trkpt lat="31.8019000" lon="35.0115500">
<ele>286.350006</ele>
<time>2020-10-07T18:19:54.596Z</time>
</trkpt>
<trkpt lat="31.8019000" lon="35.0115100">
<ele>286.589996</ele>
<time>2020-10-07T18:19:54.596Z</time>
</trkpt>
<trkpt lat="31.8021400" lon="35.0114600">
<ele>285.600006</ele>
<time>2020-10-07T18:19:54.596Z</time>
</trkpt>
<trkpt lat="31.8022700" lon="35.0113300">
<ele>285.010010</ele>
<time>2020-10-07T18:19:54.596Z</time>
</trkpt>
<trkpt lat="31.8023600" lon="35.0112300">
<ele>283.100006</ele>
<time>2020-10-07T18:19:54.596Z</time>
</trkpt>
<trkpt lat="31.8027000" lon="35.0107100">
<ele>279.039978</ele>
<time>2020-10-07T18:19:54.596Z</time>
</trkpt>
<trkpt lat="31.8027400" lon="35.0107000">
<ele>277.739990</ele>
<time>2020-10-07T18:19:54.596Z</time>
</trkpt>
<trkpt lat="31.8027500" lon="35.0104800">
<ele>276.970001</ele>
<time>2020-10-07T18:19:54.596Z</time>
</trkpt>
<trkpt lat="31.8027400" lon="35.0103300">
<ele>277.250000</ele>
<time>2020-10-07T18:19:54.596Z</time>
</trkpt>
<trkpt lat="31.8026700" lon="35.0099700">
<ele>278.149994</ele>
<time>2020-10-07T18:19:54.596Z</time>
</trkpt>
<trkpt lat="31.8026500" lon="35.0090500">
<ele>277.910004</ele>
<time>2020-10-07T18:19:54.596Z</time>
</trkpt>
<trkpt lat="31.8025300" lon="35.0084700">
<ele>279.850006</ele>
<time>2020-10-07T18:19:54.596Z</time>
</trkpt>
<trkpt lat="31.8025300" lon="35.0084700">
<ele>279.850006</ele>
<time>2020-10-07T18:19:54.596Z</time>
</trkpt>
<trkpt lat="31.8025300" lon="35.0084700">
<ele>279.850006</ele>
<time>2020-10-07T18:19:54.596Z</time>
</trkpt>
<trkpt lat="31.8025200" lon="35.0084600">
<ele>280.029999</ele>
<time>2020-10-07T18:19:54.596Z</time>
</trkpt>
<trkpt lat="31.8025200" lon="35.0083400">
<ele>279.660004</ele>
<time>2020-10-07T18:19:54.596Z</time>
</trkpt>
<trkpt lat="31.8025200" lon="35.0083000">
<ele>279.880005</ele>
<time>2020-10-07T18:19:54.596Z</time>
</trkpt>
<trkpt lat="31.8025600" lon="35.0081700">
<ele>280.100006</ele>
<time>2020-10-07T18:19:54.596Z</time>
</trkpt>
<trkpt lat="31.8025900" lon="35.0081100">
<ele>279.989990</ele>
<time>2020-10-07T18:19:54.596Z</time>
</trkpt>
<trkpt lat="31.8026900" lon="35.0080600">
<ele>278.549988</ele>
<time>2020-10-07T18:19:54.597Z</time>
</trkpt>
<trkpt lat="31.8029700" lon="35.0079700">
<ele>273.110016</ele>
<time>2020-10-07T18:19:54.597Z</time>
</trkpt>
<trkpt lat="31.8035500" lon="35.0077200">
<ele>268.140015</ele>
<time>2020-10-07T18:19:54.597Z</time>
</trkpt>
<trkpt lat="31.8037100" lon="35.0076300">
<ele>266.010010</ele>
<time>2020-10-07T18:19:54.597Z</time>
</trkpt>
<trkpt lat="31.8040900" lon="35.0073700">
<ele>264.260010</ele>
<time>2020-10-07T18:19:54.597Z</time>
</trkpt>
<trkpt lat="31.8042500" lon="35.0072200">
<ele>263.709991</ele>
<time>2020-10-07T18:19:54.597Z</time>
</trkpt>
<trkpt lat="31.8045900" lon="35.0067700">
<ele>263.260010</ele>
<time>2020-10-07T18:19:54.597Z</time>
</trkpt>
<trkpt lat="31.8047800" lon="35.0064400">
<ele>264.750000</ele>
<time>2020-10-07T18:19:54.597Z</time>
</trkpt>
<trkpt lat="31.8048800" lon="35.0061400">
<ele>265.579987</ele>
<time>2020-10-07T18:19:54.615Z</time>
</trkpt>
<trkpt lat="31.8049000" lon="35.0059600">
<ele>265.440002</ele>
<time>2020-10-07T18:19:54.615Z</time>
</trkpt>
<trkpt lat="31.8049200" lon="35.0057000">
<ele>265.429993</ele>
<time>2020-10-07T18:19:54.615Z</time>
</trkpt>
<trkpt lat="31.8049000" lon="35.0054100">
<ele>266.350006</ele>
<time>2020-10-07T18:19:54.615Z</time>
</trkpt>
<trkpt lat="31.8049000" lon="35.0052000">
<ele>266.519989</ele>
<time>2020-10-07T18:19:54.615Z</time>
</trkpt>
<trkpt lat="31.8048600" lon="35.0049200">
<ele>267.809998</ele>
<time>2020-10-07T18:19:54.615Z</time>
</trkpt>
<trkpt lat="31.8048500" lon="35.0048100">
<ele>268.410004</ele>
<time>2020-10-07T18:19:54.615Z</time>
</trkpt>
<trkpt lat="31.8048600" lon="35.0046700">
<ele>269.549988</ele>
<time>2020-10-07T18:19:54.615Z</time>
</trkpt>
<trkpt lat="31.8048900" lon="35.0045700">
<ele>271.160004</ele>
<time>2020-10-07T18:19:54.615Z</time>
</trkpt>
<trkpt lat="31.8049700" lon="35.0044500">
<ele>273.079987</ele>
<time>2020-10-07T18:19:54.615Z</time>
</trkpt>
<trkpt lat="31.8051200" lon="35.0043600">
<ele>272.960022</ele>
<time>2020-10-07T18:19:54.615Z</time>
</trkpt>
<trkpt lat="31.8051200" lon="35.0043600">
<ele>272.960022</ele>
<time>2020-10-07T18:19:54.615Z</time>
</trkpt>
<trkpt lat="31.8051200" lon="35.0043600">
<ele>272.960022</ele>
<time>2020-10-07T18:19:54.615Z</time>
</trkpt>
<trkpt lat="31.8051200" lon="35.0043600">
<ele>272.960022</ele>
<time>2020-10-07T18:19:54.615Z</time>
</trkpt>
<trkpt lat="31.8054700" lon="35.0042500">
<ele>270.580017</ele>
<time>2020-10-07T18:19:54.615Z</time>
</trkpt>
<trkpt lat="31.8056100" lon="35.0042200">
<ele>270.230011</ele>
<time>2020-10-07T18:19:54.615Z</time>
</trkpt>
<trkpt lat="31.8057200" lon="35.0042200">
<ele>269.360016</ele>
<time>2020-10-07T18:19:54.615Z</time>
</trkpt>
<trkpt lat="31.8058600" lon="35.0042400">
<ele>267.250000</ele>
<time>2020-10-07T18:19:54.615Z</time>
</trkpt>
<trkpt lat="31.8063900" lon="35.0044300">
<ele>260.040009</ele>
<time>2020-10-07T18:19:54.615Z</time>
</trkpt>
<trkpt lat="31.8066700" lon="35.0045000">
<ele>255.929993</ele>
<time>2020-10-07T18:19:54.615Z</time>
</trkpt>
<trkpt lat="31.8067000" lon="35.0046500">
<ele>252.669998</ele>
<time>2020-10-07T18:19:54.615Z</time>
</trkpt>
<trkpt lat="31.8067600" lon="35.0048100">
<ele>251.060013</ele>
<time>2020-10-07T18:19:54.615Z</time>
</trkpt>
<trkpt lat="31.8068500" lon="35.0049400">
<ele>251.550003</ele>
<time>2020-10-07T18:19:54.615Z</time>
</trkpt>
<trkpt lat="31.8069100" lon="35.0049900">
<ele>251.960007</ele>
<time>2020-10-07T18:19:54.615Z</time>
</trkpt>
<trkpt lat="31.8074600" lon="35.0047000">
<ele>250.740005</ele>
<time>2020-10-07T18:19:54.615Z</time>
</trkpt>
<trkpt lat="31.8076700" lon="35.0047000">
<ele>255.040009</ele>
<time>2020-10-07T18:19:54.615Z</time>
</trkpt>
<trkpt lat="31.8078400" lon="35.0047500">
<ele>258.010010</ele>
<time>2020-10-07T18:19:54.615Z</time>
</trkpt>
<trkpt lat="31.8080000" lon="35.0048600">
<ele>258.089996</ele>
<time>2020-10-07T18:19:54.615Z</time>
</trkpt>
<trkpt lat="31.8081800" lon="35.0049500">
<ele>257.200012</ele>
<time>2020-10-07T18:19:54.615Z</time>
</trkpt>
<trkpt lat="31.8082600" lon="35.0049900">
<ele>256.709991</ele>
<time>2020-10-07T18:19:54.615Z</time>
</trkpt>
<trkpt lat="31.8086500" lon="35.0049900">
<ele>258.170013</ele>
<time>2020-10-07T18:19:54.615Z</time>
</trkpt>
<trkpt lat="31.8086800" lon="35.0050000">
<ele>258.500000</ele>
<time>2020-10-07T18:19:54.615Z</time>
</trkpt>
<trkpt lat="31.8086800" lon="35.0050000">
<ele>258.500000</ele>
<time>2020-10-07T18:19:54.615Z</time>
</trkpt>
<trkpt lat="31.8086800" lon="35.0050000">
<ele>258.500000</ele>
<time>2020-10-07T18:19:54.615Z</time>
</trkpt>
<trkpt lat="31.8088300" lon="35.0050500">
<ele>259.829987</ele>
<time>2020-10-07T18:19:54.615Z</time>
</trkpt>
<trkpt lat="31.8090600" lon="35.0051600">
<ele>260.410004</ele>
<time>2020-10-07T18:19:54.615Z</time>
</trkpt>
<trkpt lat="31.8092400" lon="35.0051700">
<ele>259.760010</ele>
<time>2020-10-07T18:19:54.615Z</time>
</trkpt>
<trkpt lat="31.8093300" lon="35.0051100">
<ele>258.179993</ele>
<time>2020-10-07T18:19:54.615Z</time>
</trkpt>
<trkpt lat="31.8093900" lon="35.0050500">
<ele>256.970001</ele>
<time>2020-10-07T18:19:54.615Z</time>
</trkpt>
<trkpt lat="31.8095400" lon="35.0047200">
<ele>252.669998</ele>
<time>2020-10-07T18:19:54.615Z</time>
</trkpt>
<trkpt lat="31.8096500" lon="35.0045500">
<ele>252.699997</ele>
<time>2020-10-07T18:19:54.615Z</time>
</trkpt>
<trkpt lat="31.8100700" lon="35.0040300">
<ele>245.649994</ele>
<time>2020-10-07T18:19:54.615Z</time>
</trkpt>
<trkpt lat="31.8101800" lon="35.0039400">
<ele>242.959991</ele>
<time>2020-10-07T18:19:54.615Z</time>
</trkpt>
<trkpt lat="31.8103800" lon="35.0038500">
<ele>243.740005</ele>
<time>2020-10-07T18:19:54.615Z</time>
</trkpt>
<trkpt lat="31.8106900" lon="35.0037500">
<ele>248.479996</ele>
<time>2020-10-07T18:19:54.615Z</time>
</trkpt>
<trkpt lat="31.8107700" lon="35.0037500">
<ele>248.770004</ele>
<time>2020-10-07T18:19:54.615Z</time>
</trkpt>
<trkpt lat="31.8109400" lon="35.0037900">
<ele>250.919998</ele>
<time>2020-10-07T18:19:54.615Z</time>
</trkpt>
<trkpt lat="31.8110400" lon="35.0038500">
<ele>253.370010</ele>
<time>2020-10-07T18:19:54.615Z</time>
</trkpt>
<trkpt lat="31.8112400" lon="35.0040100">
<ele>255.559998</ele>
<time>2020-10-07T18:19:54.615Z</time>
</trkpt>
<trkpt lat="31.8113800" lon="35.0041500">
<ele>255.859985</ele>
<time>2020-10-07T18:19:54.615Z</time>
</trkpt>
<trkpt lat="31.8114600" lon="35.0042400">
<ele>255.580002</ele>
<time>2020-10-07T18:19:54.615Z</time>
</trkpt>
<trkpt lat="31.8115200" lon="35.0043900">
<ele>256.429993</ele>
<time>2020-10-07T18:19:54.615Z</time>
</trkpt>
<trkpt lat="31.8115400" lon="35.0044700">
<ele>257.049988</ele>
<time>2020-10-07T18:19:54.615Z</time>
</trkpt>
<trkpt lat="31.8116200" lon="35.0051000">
<ele>260.089996</ele>
<time>2020-10-07T18:19:54.615Z</time>
</trkpt>
<trkpt lat="31.8116900" lon="35.0052900">
<ele>259.619995</ele>
<time>2020-10-07T18:19:54.616Z</time>
</trkpt>
<trkpt lat="31.8117900" lon="35.0054100">
<ele>257.540009</ele>
<time>2020-10-07T18:19:54.616Z</time>
</trkpt>
<trkpt lat="31.8119300" lon="35.0054200">
<ele>255.210007</ele>
<time>2020-10-07T18:19:54.616Z</time>
</trkpt>
<trkpt lat="31.8120000" lon="35.0053800">
<ele>255.259995</ele>
<time>2020-10-07T18:19:54.616Z</time>
</trkpt>
<trkpt lat="31.8120700" lon="35.0053700">
<ele>255.340012</ele>
<time>2020-10-07T18:19:54.616Z</time>
</trkpt>
<trkpt lat="31.8121200" lon="35.0053400">
<ele>255.550003</ele>
<time>2020-10-07T18:19:54.616Z</time>
</trkpt>
<trkpt lat="31.8123700" lon="35.0068400">
<ele>261.480011</ele>
<time>2020-10-07T18:19:54.616Z</time>
</trkpt>
<trkpt lat="31.8123400" lon="35.0072300">
<ele>260.979980</ele>
<time>2020-10-07T18:19:54.616Z</time>
</trkpt>
<trkpt lat="31.8123100" lon="35.0080400">
<ele>260.549988</ele>
<time>2020-10-07T18:19:54.616Z</time>
</trkpt>
<trkpt lat="31.8123000" lon="35.0085900">
<ele>260.880005</ele>
<time>2020-10-07T18:19:54.616Z</time>
</trkpt>
<trkpt lat="31.8122700" lon="35.0089200">
<ele>261.950012</ele>
<time>2020-10-07T18:19:54.616Z</time>
</trkpt>
<trkpt lat="31.8122200" lon="35.0098500">
<ele>266.440002</ele>
<time>2020-10-07T18:19:54.616Z</time>
</trkpt>
<trkpt lat="31.8121700" lon="35.0102300">
<ele>267.779999</ele>
<time>2020-10-07T18:19:54.616Z</time>
</trkpt>
<trkpt lat="31.8121400" lon="35.0104800">
<ele>268.979980</ele>
<time>2020-10-07T18:19:54.616Z</time>
</trkpt>
<trkpt lat="31.8121500" lon="35.0105700">
<ele>269.830017</ele>
<time>2020-10-07T18:19:54.616Z</time>
</trkpt>
<trkpt lat="31.8120900" lon="35.0107100">
<ele>270.260010</ele>
<time>2020-10-07T18:19:54.616Z</time>
</trkpt>
<trkpt lat="31.8119800" lon="35.0111200">
<ele>275.480011</ele>
<time>2020-10-07T18:19:54.616Z</time>
</trkpt>
<trkpt lat="31.8117400" lon="35.0121400">
<ele>278.790009</ele>
<time>2020-10-07T18:19:54.616Z</time>
</trkpt>
<trkpt lat="31.8115100" lon="35.0128900">
<ele>276.049988</ele>
<time>2020-10-07T18:19:54.616Z</time>
</trkpt>
</trkseg>
</trk>
</gpx>
